EW6603 Weather Reports


Display with metric or nautical units.
time (UTC)temp
F
wind
direction
speed
MPH
gust
MPH
rain 1hr
in
rain 24hr
in
rain mn
in
humidity
%
barometer
mb
20260507040828 63 29 0.0 0.0 0.07 0.13 0.01 94 1009.4
20260507040734 63 29 0.0 0.0 0.07 0.13 0.01 94 1009.4
20260507040619 63 29 0.0 0.0 0.06 0.12 0.00 94 1009.4
20260507040532 63 29 0.0 0.0 0.06 0.12 0.00 94 1009.4
20260507040437 63 29 0.0 0.0 0.06 0.12 0.00 94 1009.4
20260507040329 63 29 0.0 0.0 0.06 0.12 0.00 94 1009.3
20260507040220 63 29 0.0 0.0 0.06 0.12 0.00 94 1009.3
20260507040126 63 29 0.0 0.0 0.06 0.12 0.00 94 1009.3
20260507040012 63 29 0.0 0.0 0.06 0.12 0.00 94 1009.2
20260507035918 63 29 0.0 0.0 0.06 0.12 0.00 94 1009.2
20260507035825 63 29 0.0 0.0 0.06 0.12 0.00 94 1009.1
20260507035742 63 29 0.0 0.0 0.06 0.12 0.00 94 1009.2
20260507035648 63 29 0.0 0.0 0.06 0.12 0.00 94 1009.3
20260507035539 63 29 0.0 0.0 0.06 0.12 0.00 93 1009.4
20260507035444 63 29 0.0 0.0 0.06 0.12 0.00 93 1009.5
20260507035310 63 29 0.0 0.0 0.06 0.12 0.00 93 1009.6
20260507035223 63 29 0.0 0.0 0.06 0.12 0.00 93 1009.6
20260507035109 63 29 0.0 0.0 0.06 0.12 0.00 93 1009.3
20260507035019 63 29 0.0 0.0 0.06 0.12 0.00 94 1009.3
20260507034925 63 29 0.0 0.0 0.06 0.12 0.00 94 1009.2
20260507034811 63 29 0.0 0.0 0.06 0.12 0.00 93 1009.4
20260507034744 63 29 0.0 0.0 0.06 0.12 0.00 93 1009.4
20260507034649 63 29 0.0 0.0 0.06 0.12 0.00 93 1009.5
20260507034549 62 29 0.0 0.0 0.06 0.12 0.00 93 1009.2
20260507034514 63 29 0.0 0.0 0.06 0.12 0.12 93 1009.7
20260507034431 63 29 0.0 0.0 0.06 0.12 0.12 93 1009.7
20260507034317 63 29 0.0 0.0 0.06 0.12 0.12 93 1009.6
20260507034224 63 29 0.0 0.0 0.06 0.12 0.12 93 1009.6
20260507034110 63 29 0.0 0.0 0.06 0.12 0.12 93 1009.7
20260507034017 63 29 0.0 0.0 0.06 0.12 0.12 93 1009.7
20260507033923 63 29 0.0 0.0 0.06 0.12 0.12 93 1009.7
20260507033814 63 29 0.0 0.0 0.06 0.12 0.12 93 1009.7
20260507033727 63 29 0.0 0.0 0.06 0.12 0.12 93 1009.7
20260507033633 63 29 0.0 0.0 0.06 0.12 0.12 93 1009.7
20260507033518 63 29 0.0 0.0 0.06 0.12 0.12 93 1009.7
20260507033432 63 29 0.0 0.0 0.06 0.12 0.12 93 1009.7
20260507033322 63 29 0.0 0.0 0.06 0.12 0.12 93 1009.8
20260507033228 63 29 0.0 0.0 0.06 0.12 0.12 93 1009.8
20260507033115 63 29 0.0 0.0 0.06 0.12 0.12 93 1010.0
20260507033050 62 29 0.0 0.0 0.06 0.12 0.12 93 1009.6
20260507033020 63 29 0.0 0.0 0.06 0.12 0.12 93 1010.0
20260507032926 63 29 0.0 0.0 0.06 0.12 0.12 93 1010.1
20260507032812 62 29 0.0 0.0 0.05 0.11 0.11 93 1010.0
20260507032729 62 29 0.0 0.0 0.04 0.10 0.10 93 1010.0
20260507032615 62 29 0.0 0.0 0.03 0.09 0.09 93 1010.0
20260507032521 62 29 0.0 0.0 0.02 0.08 0.08 93 1010.0
20260507032427 62 29 0.0 0.0 0.01 0.07 0.07 93 1010.0
20260507032314 62 29 0.0 0.0 0.01 0.07 0.07 93 1009.9
20260507032232 62 29 0.0 0.0 0.00 0.06 0.06 93 1009.9
20260507032111 62 29 0.0 0.0 0.00 0.06 0.06 93 1009.7
20260507032044 62 29 0.0 0.0 0.00 0.06 0.06 93 1009.7
20260507031910 62 29 0.0 0.0 0.00 0.06 0.06 93 1009.7
20260507031817 62 29 0.0 0.0 0.00 0.06 0.06 93 1009.7
20260507031730 62 29 0.0 0.0 0.00 0.06 0.06 93 1009.7
20260507031641 62 29 0.0 0.0 0.00 0.06 0.06 93 1009.7
20260507031548 62 29 0.0 0.0 0.00 0.06 0.06 93 1009.2
20260507031526 62 29 0.0 0.0 0.00 0.06 0.06 93 1009.7
20260507031412 62 29 0.0 0.0 0.00 0.06 0.06 93 1009.7
20260507031319 62 29 0.0 0.0 0.00 0.06 0.06 92 1009.7
20260507031232 62 29 0.0 0.0 0.00 0.06 0.06 92 1009.6
20260507031118 62 29 0.0 0.0 0.00 0.06 0.06 92 1009.5
20260507031009 62 29 0.0 0.0 0.00 0.06 0.06 92 1009.4
20260507030916 62 29 0.0 0.0 0.00 0.06 0.06 92 1009.4
20260507030811 62 29 0.0 0.0 0.00 0.06 0.06 92 1009.4
20260507030724 62 29 0.0 0.0 0.00 0.06 0.06 92 1009.4
20260507030631 62 29 0.0 0.0 0.00 0.06 0.06 92 1009.4
20260507030517 62 29 0.0 0.0 0.00 0.06 0.06 92 1009.4
20260507030451 62 29 0.0 0.0 0.00 0.06 0.06 92 1009.4
20260507030309 62 29 0.0 0.0 0.00 0.06 0.06 92 1009.3
20260507030222 62 29 0.0 0.0 0.00 0.06 0.06 92 1009.3
20260507030109 62 29 0.0 0.0 0.00 0.06 0.06 92 1009.1
20260507030054 62 29 0.0 0.0 0.00 0.06 0.06 92 1008.7
20260507030015 62 29 0.0 0.0 0.00 0.06 0.06 92 1009.1
20260507025926 62 29 0.0 0.0 0.00 0.06 0.06 92 1009.1
20260507025839 62 29 0.0 0.0 0.00 0.06 0.06 92 1009.2
20260507025725 62 29 0.0 0.0 0.00 0.06 0.06 92 1009.2
20260507025612 62 29 0.0 0.0 0.00 0.06 0.06 92 1009.4
20260507025518 62 29 0.0 0.0 0.00 0.06 0.06 92 1009.5
20260507025424 62 29 0.0 0.0 0.00 0.06 0.06 92 1009.5
20260507025341 62 29 0.0 0.0 0.00 0.06 0.06 92 1009.5
20260507025227 63 29 0.0 0.0 0.00 0.06 0.06 92 1009.4
20260507025114 62 29 0.0 0.0 0.00 0.06 0.06 92 1009.4
20260507025020 62 29 0.0 0.0 0.00 0.06 0.06 92 1009.4
20260507024933 62 29 0.0 0.0 0.00 0.06 0.06 92 1009.2
20260507024821 62 29 0.0 0.0 0.00 0.06 0.06 92 1009.1
20260507024731 62 29 0.0 0.0 0.00 0.06 0.06 92 1009.2
20260507024643 62 29 0.0 0.0 0.00 0.06 0.06 92 1009.2
20260507024528 62 29 0.0 0.0 0.00 0.06 0.06 92 1009.3
20260507024503 62 29 0.0 0.0 0.00 0.06 0.06 91 1008.8
20260507024434 62 29 0.0 0.0 0.00 0.06 0.06 91 1009.2
20260507024319 62 29 0.0 0.0 0.00 0.06 0.06 91 1009.2
20260507024231 62 29 0.0 0.0 0.00 0.06 0.06 91 1009.3
20260507024123 62 29 0.0 0.0 0.00 0.06 0.06 91 1009.2
20260507024029 62 29 0.0 0.0 0.00 0.06 0.06 91 1009.3
20260507023916 62 29 0.0 0.0 0.00 0.06 0.06 91 1009.3
20260507023822 62 29 0.0 0.0 0.00 0.06 0.06 91 1009.3
20260507023710 62 29 0.0 0.0 0.00 0.06 0.06 91 1009.3
20260507023616 63 29 0.0 0.0 0.00 0.06 0.06 91 1009.2
20260507023533 63 29 0.0 0.0 0.00 0.06 0.06 91 1009.2
20260507023418 63 29 0.0 0.0 0.00 0.06 0.06 91 1009.1
20260507023330 63 29 0.0 0.0 0.00 0.06 0.06 91 1009.1
20260507023216 63 29 0.0 0.0 0.00 0.06 0.06 91 1009.2
20260507023123 63 29 0.0 0.0 0.00 0.06 0.06 91 1009.2
20260507023053 62 29 0.0 0.0 0.00 0.06 0.06 91 1008.8
20260507023010 63 29 0.0 0.0 0.00 0.06 0.06 92 1009.1
20260507022946 63 29 0.0 0.0 0.00 0.06 0.06 92 1009.1
20260507022812 63 29 0.0 0.0 0.00 0.06 0.06 92 1009.1
20260507022719 63 29 0.0 0.0 0.00 0.06 0.06 92 1009.1
20260507022654 63 29 0.0 0.0 0.00 0.06 0.06 92 1009.0
20260507022512 63 29 0.0 0.0 0.00 0.06 0.06 92 1009.0
20260507022425 62 29 0.0 0.0 0.00 0.06 0.06 92 1009.0
20260507022316 62 29 0.0 0.0 0.00 0.06 0.06 92 1009.1
20260507022222 62 29 0.0 0.0 0.00 0.06 0.06 92 1009.1
20260507022155 62 29 0.0 0.0 0.00 0.06 0.06 92 1009.1
20260507022039 62 29 0.0 0.0 0.00 0.06 0.06 92 1009.1
20260507021924 62 29 0.0 0.0 0.00 0.06 0.06 92 1009.1
20260507021811 62 29 0.0 0.0 0.00 0.06 0.06 92 1009.2
20260507021728 62 29 0.0 0.0 0.00 0.06 0.06 91 1009.2
20260507021634 62 29 0.0 0.0 0.00 0.06 0.06 91 1009.2
20260507021550 62 29 0.0 0.0 0.00 0.06 0.06 91 1008.8
20260507021519 62 29 0.0 0.0 0.00 0.06 0.06 91 1009.2
20260507021452 62 29 0.0 0.0 0.00 0.06 0.06 91 1009.2
20260507021317 62 29 0.0 0.0 0.00 0.06 0.06 91 1009.1
20260507021224 62 29 0.0 0.0 0.00 0.06 0.06 91 1009.1
20260507021114 62 29 0.0 0.0 0.00 0.06 0.06 91 1009.0
20260507021021 62 29 0.0 0.0 0.00 0.06 0.06 91 1009.0
20260507020933 62 29 0.0 0.0 0.00 0.06 0.06 91 1009.0
20260507020839 62 29 0.0 0.0 0.00 0.06 0.06 91 1008.9
20260507020748 62 29 0.0 0.0 0.00 0.06 0.06 91 1008.9
20260507020633 62 29 0.0 0.0 0.00 0.06 0.06 91 1008.8
20260507020537 62 29 0.0 0.0 0.00 0.06 0.06 91 1008.7
20260507020435 62 29 0.0 0.0 0.00 0.06 0.06 91 1008.7
20260507020314 62 29 0.0 0.0 0.00 0.06 0.06 91 1008.8
20260507020227 62 29 0.0 0.0 0.00 0.06 0.06 90 1008.8
20260507020134 62 29 0.0 0.0 0.00 0.06 0.06 90 1008.8
20260507020034 62 29 0.0 0.0 0.00 0.06 0.06 90 1008.4
20260507020016 62 29 0.0 0.0 0.00 0.06 0.06 90 1008.8
20260507015949 62 29 0.0 0.0 0.00 0.06 0.06 90 1008.8
20260507015819 62 29 0.0 0.0 0.00 0.06 0.06 90 1008.8
20260507015725 62 29 0.0 0.0 0.00 0.06 0.06 90 1008.8
20260507015611 62 29 0.0 0.0 0.00 0.06 0.06 90 1008.7
20260507015518 63 29 0.0 0.0 0.00 0.06 0.06 90 1008.7
20260507015430 63 29 0.0 0.0 0.00 0.06 0.06 90 1008.7
20260507015317 63 29 0.0 0.0 0.00 0.06 0.06 90 1008.7
20260507015227 63 29 0.0 0.0 0.00 0.06 0.06 90 1008.7
20260507015114 63 29 0.0 0.0 0.00 0.06 0.06 90 1008.9
20260507015026 63 29 0.0 0.0 0.00 0.06 0.06 90 1008.9
20260507014912 63 29 0.0 0.0 0.00 0.06 0.06 90 1008.9
20260507014839 63 29 0.0 0.0 0.00 0.06 0.06 90 1008.9
20260507014737 63 29 0.0 0.0 0.00 0.06 0.06 89 1008.8
20260507014622 63 29 0.0 0.0 0.00 0.06 0.06 89 1008.7
20260507014615 63 29 0.0 0.0 0.00 0.06 0.06 89 1008.2
20260507014525 63 29 0.0 0.0 0.00 0.06 0.06 89 1008.6
20260507014428 63 29 0.0 0.0 0.00 0.06 0.06 89 1008.4
20260507014335 63 29 0.0 0.0 0.00 0.06 0.06 90 1008.4
20260507014227 63 29 0.0 0.0 0.00 0.06 0.06 90 1008.4
20260507014113 63 29 0.0 0.0 0.00 0.06 0.06 90 1008.3
20260507014042 63 29 0.0 0.0 0.00 0.06 0.06 89 1008.3
20260507013934 63 29 0.0 0.0 0.00 0.06 0.06 89 1008.3
20260507013821 64 29 0.0 0.0 0.00 0.06 0.06 89 1008.3
20260507013709 64 29 0.0 0.0 0.00 0.06 0.06 89 1008.4
20260507013634 64 29 0.0 0.0 0.00 0.06 0.06 89 1008.4
20260507013520 64 29 0.0 0.0 0.00 0.06 0.06 89 1008.6
20260507013434 64 29 0.0 0.0 0.00 0.06 0.06 89 1008.6
20260507013340 64 29 0.0 0.0 0.00 0.06 0.06 89 1008.7
20260507013223 64 29 0.0 0.0 0.00 0.06 0.06 89 1008.7
20260507013136 64 29 0.0 0.0 0.00 0.06 0.06 89 1008.7
20260507013058 64 29 0.0 0.0 0.00 0.06 0.06 89 1008.3
20260507013017 64 29 0.0 0.0 0.00 0.06 0.06 89 1008.7
20260507012917 64 29 0.0 0.0 0.00 0.06 0.06 89 1008.7
20260507012830 64 29 0.0 0.0 0.00 0.06 0.06 89 1008.7
20260507012721 64 29 0.0 0.0 0.00 0.06 0.06 89 1008.8
20260507012625 64 29 0.0 0.0 0.00 0.06 0.06 89 1008.8
20260507012525 64 29 0.0 0.0 0.00 0.06 0.06 89 1008.8
20260507012411 64 29 0.0 0.0 0.00 0.06 0.06 89 1008.8
20260507012344 65 29 0.0 0.0 0.00 0.06 0.06 89 1008.8
20260507012249 65 29 0.0 0.0 0.00 0.06 0.06 89 1008.8
20260507012118 65 29 0.0 0.0 0.00 0.06 0.06 89 1008.7
20260507012031 65 29 0.0 0.0 0.00 0.06 0.06 89 1008.7
20260507011930 65 29 0.0 0.0 0.00 0.06 0.06 89 1008.7
20260507011842 65 29 0.0 0.0 0.00 0.06 0.06 89 1008.7
20260507011717 65 29 0.0 0.0 0.00 0.06 0.06 89 1008.9
20260507011620 65 29 0.0 0.0 0.00 0.06 0.06 89 1008.9
20260507011554 65 29 0.0 0.0 0.00 0.06 0.06 89 1008.9
20260507011537 64 29 0.0 0.0 0.00 0.06 0.06 89 1008.5
20260507011416 64 29 0.0 0.0 0.00 0.06 0.06 90 1008.9
20260507011319 64 29 0.0 0.0 0.00 0.06 0.06 90 1008.9
20260507011222 64 29 0.0 0.0 0.00 0.06 0.06 90 1008.9
20260507011129 64 29 0.0 0.0 0.00 0.06 0.06 90 1009.0
20260507011014 64 29 0.0 0.0 0.00 0.06 0.06 90 1009.1
20260507010813 64 29 0.0 0.0 0.00 0.06 0.06 90 1009.1
20260507010740 64 29 0.0 0.0 0.00 0.06 0.06 90 1009.1
20260507010631 64 29 0.0 0.0 0.00 0.06 0.06 90 1009.0
20260507010519 64 29 0.0 0.0 0.00 0.06 0.06 90 1008.9
20260507010424 64 29 0.0 0.0 0.00 0.06 0.06 90 1009.0
20260507010315 64 29 0.0 0.0 0.00 0.06 0.06 90 1009.0
20260507010222 64 29 0.0 0.0 0.00 0.06 0.06 90 1009.0
20260507010129 64 29 0.0 0.0 0.00 0.06 0.06 90 1009.0
20260507010116 63 29 0.0 0.0 0.00 0.06 0.06 90 1008.6
20260507010035 64 29 0.0 0.0 0.00 0.06 0.06 89 1009.1
20260507005921 64 29 0.0 0.0 0.00 0.06 0.06 89 1009.1
20260507005834 64 29 0.0 0.0 0.00 0.06 0.06 89 1009.1
20260507005741 64 29 0.0 0.0 0.00 0.06 0.06 89 1009.1
20260507005611 64 29 0.0 0.0 0.00 0.06 0.06 89 1009.1
20260507005544 64 29 0.0 0.0 0.00 0.06 0.06 89 1009.1
20260507005411 64 29 0.0 0.0 0.00 0.06 0.06 89 1009.1
20260507005316 64 29 0.0 0.0 0.00 0.06 0.06 89 1009.1
20260507005222 64 29 0.0 0.0 0.00 0.06 0.06 89 1009.1
20260507005155 64 29 0.0 0.0 0.00 0.06 0.06 89 1009.1
20260507005027 64 29 0.0 0.0 0.00 0.06 0.06 89 1009.0
20260507004909 64 29 0.0 0.0 0.00 0.06 0.06 89 1008.9
20260507004816 64 29 0.0 0.0 0.00 0.06 0.06 89 1008.9
20260507004729 64 29 0.0 0.0 0.00 0.06 0.06 89 1008.9
20260507004616 64 29 0.0 0.0 0.00 0.06 0.06 89 1009.0
20260507004603 64 29 0.0 0.0 0.00 0.06 0.06 89 1008.6
20260507004519 64 29 0.0 0.0 0.00 0.06 0.06 89 1009.1
20260507004430 64 29 0.0 0.0 0.00 0.06 0.06 89 1009.1
20260507004332 64 29 0.0 0.0 0.00 0.06 0.06 89 1009.0
20260507004225 64 29 0.0 0.0 0.00 0.06 0.06 89 1009.0
20260507004149 65 29 0.0 0.0 0.00 0.06 0.06 88 1009.1
20260507004022 65 29 0.0 0.0 0.00 0.06 0.06 88 1009.1
20260507003909 65 29 0.0 0.0 0.00 0.06 0.06 88 1009.1
20260507003820 65 29 0.0 0.0 0.00 0.06 0.06 88 1009.1
20260507003726 65 29 0.0 0.0 0.00 0.06 0.06 88 1009.0
20260507003612 65 29 0.0 0.0 0.00 0.06 0.06 88 1008.8
20260507003525 65 29 0.0 0.0 0.00 0.06 0.06 88 1008.8
20260507003428 65 29 0.0 0.0 0.00 0.06 0.06 88 1008.7
20260507003310 65 29 0.0 0.0 0.00 0.06 0.06 88 1008.7
20260507003221 65 29 0.0 0.0 0.00 0.06 0.06 88 1008.7
20260507003128 65 29 0.0 0.0 0.00 0.06 0.06 87 1008.8
20260507003031 65 29 0.0 0.0 0.00 0.06 0.06 87 1008.4
20260507003013 65 29 0.0 0.0 0.00 0.06 0.06 87 1008.9
20260507002927 65 29 0.0 0.0 0.00 0.06 0.06 87 1008.9
20260507002828 65 29 0.0 0.0 0.00 0.06 0.06 87 1008.9
20260507002711 65 29 0.0 0.0 0.00 0.06 0.06 87 1008.9
20260507002619 66 29 0.0 0.0 0.00 0.06 0.06 87 1008.9
20260507002533 66 29 0.0 0.0 0.00 0.06 0.06 87 1009.0
20260507002432 66 29 0.0 0.0 0.00 0.06 0.06 87 1009.0
20260507002319 66 29 0.0 0.0 0.00 0.06 0.06 87 1009.0
20260507002222 66 29 0.0 0.0 0.00 0.06 0.06 87 1008.9
20260507002133 66 29 0.0 0.0 0.00 0.06 0.06 87 1008.9
20260507002025 66 29 0.0 0.0 0.00 0.06 0.06 87 1008.9
20260507001929 66 29 0.0 0.0 0.00 0.06 0.06 86 1008.8
20260507001815 66 29 0.0 0.0 0.00 0.06 0.06 86 1008.8
20260507001721 66 29 0.0 0.0 0.00 0.06 0.06 86 1008.7
20260507001631 66 29 0.0 0.0 0.00 0.06 0.06 87 1008.3
20260507001620 66 29 0.0 0.0 0.00 0.06 0.06 86 1008.7
20260507001538 66 29 0.0 0.0 0.00 0.06 0.06 86 1008.7
20260507001439 66 29 0.0 0.0 0.00 0.06 0.06 86 1008.7
20260507001352 67 29 0.0 0.0 0.00 0.06 0.06 86 1008.7
20260507001257 67 29 0.0 0.0 0.00 0.06 0.06 86 1008.7
20260507001121 67 29 0.0 0.0 0.00 0.06 0.06 86 1008.6
20260507001021 67 29 0.0 0.0 0.00 0.06 0.06 86 1008.6
20260507000925 67 29 0.0 0.0 0.00 0.06 0.06 86 1008.6
20260507000815 67 29 0.0 0.0 0.00 0.06 0.06 86 1008.5
20260507000725 67 29 0.0 0.0 0.00 0.06 0.06 86 1008.5
20260507000631 67 29 0.0 0.0 0.00 0.06 0.06 86 1008.5
20260507000543 67 29 0.0 0.0 0.00 0.06 0.06 86 1008.5
20260507000452 67 29 0.0 0.0 0.00 0.06 0.06 85 1008.5
20260507000343 68 29 0.0 0.0 0.00 0.06 0.06 85 1008.5
20260507000227 68 29 0.0 0.0 0.00 0.06 0.06 85 1008.4
20260507000112 68 29 0.0 0.0 0.00 0.06 0.06 85 1008.4
20260507000051 67 29 0.0 0.0 0.00 0.06 0.06 85 1008.0
20260507000029 68 29 0.0 0.0 0.00 0.06 0.06 85 1008.4
20260506235911 68 29 0.0 0.0 0.00 0.06 0.06 85 1008.3
20260506235822 68 29 0.0 0.0 0.00 0.06 0.06 85 1008.3
20260506235738 68 29 0.0 0.0 0.00 0.06 0.06 84 1008.3
20260506235630 68 29 0.0 0.0 0.00 0.06 0.06 84 1008.3
20260506235516 68 29 0.0 0.0 0.00 0.06 0.06 84 1008.3
20260506235424 68 29 0.0 0.0 0.00 0.06 0.06 84 1008.3
20260506235331 68 29 0.0 0.0 0.00 0.06 0.06 84 1008.3
20260506235242 68 29 0.0 0.0 0.00 0.06 0.06 84 1008.2
20260506235126 69 29 0.0 0.0 0.00 0.06 0.06 84 1008.2
20260506235033 69 29 0.0 0.0 0.00 0.06 0.06 84 1008.3
20260506234959 69 29 0.0 0.0 0.00 0.06 0.06 83 1008.2
20260506234825 69 29 0.0 0.0 0.00 0.06 0.06 84 1008.2
20260506234748 69 29 0.0 0.0 0.00 0.06 0.06 84 1008.2
20260506234609 69 29 0.0 0.0 0.00 0.06 0.06 84 1008.3
20260506234522 69 29 0.0 0.0 0.00 0.06 0.06 84 1008.3
20260506234508 68 29 0.0 0.0 0.00 0.06 0.06 84 1007.9
20260506234428 69 29 0.0 0.0 0.00 0.06 0.06 84 1008.3
20260506234312 69 29 0.0 0.0 0.00 0.06 0.06 83 1008.3
20260506234223 69 29 0.0 0.0 0.00 0.06 0.06 83 1008.3
20260506234109 69 29 0.0 0.0 0.00 0.06 0.06 83 1008.4
20260506234039 69 29 0.0 0.0 0.00 0.06 0.06 83 1008.4
20260506233930 69 29 0.0 0.0 0.00 0.06 0.06 83 1008.4
20260506233816 69 36 0.0 0.0 0.00 0.06 0.06 83 1008.4
20260506233729 69 38 0.0 0.0 0.00 0.06 0.06 83 1008.4
20260506233611 69 36 0.0 0.0 0.00 0.06 0.06 83 1008.5
20260506233518 70 59 0.0 0.0 0.00 0.06 0.06 82 1008.5
20260506233451 70 59 0.0 0.0 0.00 0.06 0.06 82 1008.5
20260506233316 70 59 0.0 0.0 0.00 0.06 0.06 82 1008.5
20260506233221 70 48 0.0 0.0 0.00 0.06 0.06 82 1008.5
20260506233123 70 28 0.0 0.0 0.00 0.06 0.06 82 1008.5
20260506233052 69 28 0.0 0.0 0.00 0.06 0.06 82 1008.1
20260506233026 70 28 0.0 0.0 0.00 0.06 0.06 82 1008.6
20260506232934 70 5 0.0 0.0 0.00 0.06 0.06 82 1008.6
20260506232821 70 5 0.0 0.0 0.00 0.06 0.06 82 1008.7
20260506232724 70 5 0.0 0.0 0.00 0.06 0.06 81 1008.7
20260506232611 70 5 0.0 0.0 0.00 0.06 0.06 82 1008.7
20260506232514 70 5 0.0 0.0 0.00 0.06 0.06 81 1008.6
20260506232431 70 5 0.0 0.0 0.00 0.06 0.06 81 1008.6
20260506232319 70 5 0.0 0.0 0.00 0.06 0.06 81 1008.5
20260506232224 70 5 0.0 0.0 0.00 0.06 0.06 81 1008.7
20260506232112 70 5 0.0 0.0 0.00 0.06 0.06 81 1008.7
20260506232018 71 5 0.0 0.0 0.00 0.06 0.06 81 1008.7
20260506231924 71 5 0.0 0.0 0.00 0.06 0.06 81 1008.7
20260506231815 71 5 0.0 0.0 0.00 0.06 0.06 81 1008.6
20260506231726 71 5 0.0 0.0 0.00 0.06 0.06 81 1008.6
20260506231613 71 5 0.0 0.0 0.00 0.06 0.06 80 1008.6
20260506231605 70 5 0.0 0.0 0.00 0.06 0.06 80 1008.1
20260506231519 71 5 0.0 0.0 0.00 0.06 0.06 80 1008.6
20260506231426 71 16 0.0 0.0 0.00 0.06 0.06 80 1008.5
20260506231317 71 38 0.0 0.0 0.00 0.06 0.06 79 1008.5
20260506231225 71 74 0.0 0.0 0.00 0.06 0.06 80 1008.5
20260506231137 71 171 0.0 0.0 0.00 0.06 0.06 81 1008.5
20260506231016 71 233 0.0 0.0 0.00 0.06 0.06 80 1008.5
20260506230923 71 233 0.0 0.0 0.00 0.06 0.06 80 1008.5
20260506230812 71 233 0.0 0.0 0.00 0.06 0.06 79 1008.4
20260506230718 71 225 0.0 0.0 0.00 0.06 0.06 80 1008.4
20260506230624 71 194 0.0 1.0 0.00 0.06 0.06 79 1008.3
20260506230534 71 63 0.0 1.0 0.00 0.06 0.06 79 1008.3
20260506230421 71 63 0.0 1.0 0.00 0.06 0.06 78 1008.3
20260506230342 71 63 0.0 1.0 0.00 0.06 0.06 80 1008.2
20260506230234 71 28 0.0 1.0 0.00 0.06 0.06 79 1008.2
20260506230135 71 43 0.0 1.0 0.00 0.06 0.06 79 1008.0
20260506230043 71 75 0.0 1.0 0.00 0.06 0.06 79 1007.6
20260506230016 71 68 0.0 1.0 0.00 0.06 0.06 78 1008.0
20260506225929 71 59 0.0 1.0 0.00 0.06 0.06 78 1008.0
20260506225811 71 68 0.0 1.0 0.00 0.06 0.06 79 1008.1
20260506225731 72 355 0.0 0.0 0.00 0.06 0.06 79 1008.1
20260506225626 71 355 0.0 0.0 0.00 0.06 0.06 78 1008.1
20260506225513 72 71 0.0 1.0 0.00 0.06 0.06 79 1008.2
20260506225426 72 71 0.0 1.0 0.00 0.06 0.06 80 1008.2
20260506225326 72 269 0.0 3.0 0.00 0.06 0.06 79 1008.2
20260506225212 72 269 0.0 3.0 0.00 0.06 0.06 79 1008.1
20260506225142 72 269 0.0 3.0 0.00 0.06 0.06 79 1008.1
20260506225021 72 269 0.0 3.0 0.00 0.06 0.06 79 1008.1
20260506224911 72 269 0.0 3.0 0.00 0.06 0.06 79 1008.0
20260506224818 72 269 0.0 3.0 0.00 0.06 0.06 79 1008.0
20260506224725 72 269 0.0 3.0 0.00 0.06 0.06 78 1008.0
20260506224658 72 269 1.0 3.0 0.00 0.06 0.06 77 1007.9
20260506224600 71 269 0.0 3.0 0.00 0.06 0.06 77 1007.4
20260506224528 72 269 1.0 3.0 0.00 0.06 0.06 77 1007.9
20260506224415 72 42 0.0 1.0 0.00 0.06 0.06 77 1007.9
20260506224352 72 59 0.0 1.0 0.00 0.06 0.06 77 1007.9
20260506224215 72 31 0.0 1.0 0.00 0.06 0.06 77 1008.0
20260506224121 72 37 0.0 5.0 0.00 0.06 0.06 78 1008.0
20260506224023 72 333 0.0 5.0 0.00 0.06 0.06 77 1008.0
20260506223934 72 325 0.0 5.0 0.00 0.06 0.06 77 1008.1
20260506223814 72 57 0.0 5.0 0.00 0.06 0.06 77 1008.2
20260506223731 72 5 0.0 6.0 0.00 0.06 0.06 77 1008.2
20260506223618 72 5 0.0 6.0 0.00 0.06 0.06 77 1008.1
20260506223514 72 21 0.0 6.0 0.00 0.06 0.06 77 1008.1
20260506223418 72 98 0.0 6.0 0.00 0.06 0.06 77 1008.1
20260506223332 72 298 0.0 6.0 0.00 0.06 0.06 77 1008.2
20260506223218 72 51 0.0 6.0 0.00 0.06 0.06 77 1008.2
20260506223153 72 81 0.0 6.0 0.00 0.06 0.06 77 1008.2
20260506223114 71 11 0.0 6.0 0.00 0.06 0.06 77 1007.8
20260506223035 72 17 1.0 6.0 0.00 0.06 0.06 77 1008.2
20260506222913 72 45 1.0 6.0 0.00 0.06 0.06 77 1008.3
20260506222820 72 28 1.0 6.0 0.00 0.06 0.06 77 1008.3
20260506222723 72 76 1.0 6.0 0.00 0.06 0.06 77 1008.3
20260506222610 72 46 0.0 0.0 0.00 0.06 0.06 77 1008.2
20260506222527 72 47 0.0 0.0 0.00 0.06 0.06 77 1008.2
20260506222414 72 30 0.0 1.0 0.00 0.06 0.06 77 1008.2
20260506222318 72 34 0.0 1.0 0.00 0.06 0.06 77 1008.2
20260506222220 72 37 0.0 1.0 0.00 0.06 0.06 77 1008.2
20260506222130 72 61 0.0 2.0 0.00 0.06 0.06 77 1008.2
20260506222016 72 65 0.0 2.0 0.00 0.06 0.06 77 1008.1
20260506221922 72 5 0.0 2.0 0.00 0.06 0.06 77 1008.1
20260506221809 72 25 0.0 3.0 0.00 0.06 0.06 77 1008.1
20260506221715 72 350 0.0 3.0 0.00 0.06 0.06 77 1008.1
20260506221622 72 74 0.0 3.0 0.00 0.06 0.06 76 1008.1
20260506221535 72 86 0.0 8.0 0.00 0.06 0.06 77 1008.1
20260506221520 71 89 0.0 8.0 0.00 0.06 0.06 77 1007.6
20260506221425 72 73 0.0 8.0 0.00 0.06 0.06 78 1008.1
20260506221325 72 73 0.0 8.0 0.00 0.06 0.06 77 1008.1
20260506221225 72 138 0.0 8.0 0.00 0.06 0.06 76 1008.1
20260506221139 72 43 1.0 8.0 0.00 0.06 0.06 76 1008.1
20260506221024 72 234 0.0 8.0 0.00 0.06 0.06 76 1008.1
20260506220928 72 360 0.0 8.0 0.00 0.06 0.06 77 1008.1
20260506220819 72 360 1.0 8.0 0.00 0.06 0.06 76 1008.0
20260506220718 72 325 1.0 10.0 0.00 0.06 0.06 76 1008.0
20260506220631 72 355 0.0 10.0 0.00 0.06 0.06 76 1008.0
20260506220517 72 111 0.0 10.0 0.00 0.06 0.06 76 1008.1
20260506220424 72 66 0.0 10.0 0.00 0.06 0.06 76 1008.1
20260506220311 72 290 0.0 10.0 0.00 0.06 0.06 76 1008.0
20260506220228 72 58 0.0 10.0 0.00 0.06 0.06 76 1008.0
20260506220114 72 63 1.0 10.0 0.00 0.06 0.06 76 1008.0
20260506220106 72 80 1.0 10.0 0.00 0.06 0.06 76 1007.6
20260506220039 72 80 1.0 10.0 0.00 0.06 0.06 75 1008.0
20260506215924 72 97 1.0 10.0 0.00 0.06 0.06 76 1008.0
20260506215812 72 77 0.0 1.0 0.00 0.06 0.06 76 1008.1
20260506215724 72 122 0.0 1.0 0.00 0.06 0.06 76 1008.1
20260506215615 72 28 0.0 1.0 0.00 0.06 0.06 75 1008.0
20260506215541 73 296 0.0 1.0 0.00 0.06 0.06 75 1008.0
20260506215434 73 5 0.0 1.0 0.00 0.06 0.06 75 1008.0
20260506215320 73 252 0.0 4.0 0.00 0.06 0.06 75 1008.1
20260506215226 73 15 0.0 4.0 0.00 0.06 0.06 75 1008.0
20260506215118 73 74 0.0 4.0 0.00 0.06 0.06 75 1008.1
20260506215023 73 75 0.0 4.0 0.00 0.06 0.06 75 1008.1
20260506214909 73 40 0.0 4.0 0.00 0.06 0.06 74 1008.1
20260506214817 73 46 0.0 4.0 0.00 0.06 0.06 74 1008.1
20260506214729 73 105 0.0 4.0 0.00 0.06 0.06 74 1008.1
20260506214636 73 105 1.0 4.0 0.00 0.06 0.06 74 1008.1
20260506214544 73 95 0.0 4.0 0.00 0.06 0.06 74 1007.6
20260506214524 73 94 1.0 4.0 0.00 0.06 0.06 74 1008.1
20260506214437 74 279 1.0 4.0 0.00 0.06 0.06 73 1008.1
20260506214343 74 75 1.0 4.0 0.00 0.06 0.06 74 1008.1
20260506214234 74 291 0.0 6.0 0.00 0.06 0.06 74 1008.1
20260506214119 74 5 0.0 6.0 0.00 0.06 0.06 74 1008.1
20260506214026 74 329 0.0 6.0 0.00 0.06 0.06 73 1008.0
20260506213910 74 294 0.0 6.0 0.00 0.06 0.06 73 1007.9
20260506213821 74 298 0.0 6.0 0.00 0.06 0.06 73 1007.9
20260506213734 74 34 0.0 6.0 0.00 0.06 0.06 73 1008.0
20260506213620 74 85 1.0 6.0 0.00 0.06 0.06 73 1008.0
20260506213526 74 284 2.0 6.0 0.00 0.06 0.06 73 1007.9
20260506213412 74 342 0.0 1.0 0.00 0.06 0.06 73 1007.8
20260506213343 74 38 0.0 0.0 0.00 0.06 0.06 72 1007.8
20260506213209 74 52 0.0 0.0 0.00 0.06 0.06 73 1007.8
20260506213135 74 32 0.0 0.0 0.00 0.06 0.06 74 1007.8
20260506213043 74 330 0.0 0.0 0.00 0.06 0.06 74 1007.3
20260506213033 74 281 0.0 0.0 0.00 0.06 0.06 75 1007.8
20260506212913 74 65 0.0 0.0 0.00 0.06 0.06 74 1007.7
20260506212826 74 47 0.0 0.0 0.00 0.06 0.06 73 1007.7
20260506212716 74 82 0.0 0.0 0.00 0.06 0.06 75 1007.8
20260506212622 74 335 0.0 0.0 0.00 0.06 0.06 74 1007.8
20260506212528 74 223 0.0 0.0 0.00 0.06 0.06 73 1007.8
20260506212414 74 232 0.0 0.0 0.00 0.06 0.06 74 1007.8
20260506212320 74 289 0.0 0.0 0.00 0.06 0.06 74 1007.8
20260506212233 74 324 0.0 0.0 0.00 0.06 0.06 74 1007.8
20260506212123 74 89 0.0 0.0 0.00 0.06 0.06 73 1007.9
20260506212049 74 331 0.0 0.0 0.00 0.06 0.06 74 1007.8
20260506211914 74 17 0.0 0.0 0.00 0.06 0.06 74 1007.9
20260506211827 74 57 0.0 0.0 0.00 0.06 0.06 75 1007.9
20260506211729 74 125 0.0 1.0 0.00 0.06 0.06 74 1007.8
20260506211612 74 25 0.0 5.0 0.00 0.06 0.06 74 1007.8
20260506211551 73 16 0.0 5.0 0.00 0.06 0.06 74 1007.3
20260506211521 74 16 0.0 5.0 0.00 0.06 0.06 74 1007.8
20260506211435 74 10 0.0 5.0 0.00 0.06 0.06 74 1007.7
20260506211341 74 249 0.0 5.0 0.00 0.06 0.06 73 1007.7
20260506211226 74 262 0.0 5.0 0.00 0.06 0.06 73 1007.7
20260506211112 74 67 0.0 5.0 0.00 0.06 0.06 73 1007.8
20260506211018 74 239 0.0 5.0 0.00 0.06 0.06 73 1007.8
20260506210935 74 329 1.0 5.0 0.00 0.06 0.06 73 1007.8
20260506210820 74 277 1.0 5.0 0.00 0.06 0.06 74 1007.8
20260506210726 74 269 0.0 2.0 0.00 0.06 0.06 74 1007.9
20260506210613 74 297 0.0 2.0 0.00 0.06 0.06 74 1007.9
20260506210515 74 11 0.0 1.0 0.00 0.06 0.06 74 1007.9
20260506210433 74 5 0.0 1.0 0.00 0.06 0.06 74 1007.9
20260506210311 74 50 0.0 1.0 0.00 0.06 0.06 75 1007.9
20260506210224 74 313 0.0 1.0 0.00 0.06 0.06 75 1007.9
20260506210110 74 38 0.0 2.0 0.00 0.06 0.06 75 1007.8
20260506210056 73 44 0.0 2.0 0.00 0.06 0.06 75 1007.3
20260506210016 74 297 0.0 2.0 0.00 0.06 0.06 75 1007.8
20260506205923 74 308 0.0 2.0 0.00 0.06 0.06 75 1007.8
20260506205812 74 321 0.0 2.0 0.00 0.06 0.06 76 1007.9
20260506205726 73 319 0.0 2.0 0.00 0.06 0.06 75 1007.9
20260506205632 73 276 0.0 2.0 0.00 0.06 0.06 75 1007.9
20260506205537 73 285 0.0 2.0 0.00 0.06 0.06 75 1007.9
20260506205429 73 265 0.0 5.0 0.00 0.06 0.06 76 1007.9
20260506205315 73 267 0.0 5.0 0.00 0.06 0.06 77 1007.9
20260506205222 73 227 0.0 5.0 0.00 0.06 0.06 76 1007.9
20260506205127 73 224 0.0 5.0 0.00 0.06 0.06 76 1007.9
20260506205013 73 40 0.0 5.0 0.00 0.06 0.06 76 1007.9
20260506204926 73 65 0.0 5.0 0.00 0.06 0.06 76 1007.9
20260506204814 73 86 0.0 5.0 0.00 0.06 0.06 76 1007.9
20260506204719 73 111 1.0 5.0 0.00 0.06 0.06 76 1007.9
20260506204625 73 157 1.0 5.0 0.00 0.06 0.06 75 1007.9
20260506204542 72 78 0.0 5.0 0.00 0.06 0.06 75 1007.3
20260506204511 73 335 0.0 3.0 0.00 0.06 0.06 75 1007.8
20260506204417 73 287 0.0 3.0 0.00 0.06 0.06 76 1007.8
20260506204330 73 292 0.0 3.0 0.00 0.06 0.06 76 1007.8
20260506204236 73 29 0.0 3.0 0.00 0.06 0.06 76 1007.7
20260506204125 73 257 0.0 3.0 0.00 0.06 0.06 76 1007.7
20260506204011 73 321 0.0 3.0 0.00 0.06 0.06 75 1007.8
20260506203924 73 321 0.0 3.0 0.00 0.06 0.06 75 1007.8
20260506203830 73 309 0.0 2.0 0.00 0.06 0.06 75 1007.8
20260506203716 73 31 0.0 2.0 0.00 0.06 0.06 75 1007.8
20260506203622 73 360 0.0 2.0 0.00 0.06 0.06 76 1007.8
20260506203512 73 201 0.0 6.0 0.00 0.06 0.06 76 1007.7
20260506203418 73 36 0.0 6.0 0.00 0.06 0.06 75 1007.8
20260506203331 73 95 0.0 6.0 0.00 0.06 0.06 76 1007.8
20260506203217 73 78 0.0 6.0 0.00 0.06 0.06 76 1007.8
20260506203122 73 288 0.0 6.0 0.00 0.06 0.06 76 1007.8
20260506203056 72 336 0.0 6.0 0.00 0.06 0.06 76 1007.3
20260506203013 73 18 0.0 6.0 0.00 0.06 0.06 76 1007.8
20260506202919 73 30 0.0 6.0 0.00 0.06 0.06 76 1007.8
20260506202825 73 25 0.0 6.0 0.00 0.06 0.06 76 1007.7
20260506202711 73 53 0.0 6.0 0.00 0.06 0.06 76 1007.8
20260506202623 73 71 0.0 0.0 0.00 0.06 0.06 76 1007.8
20260506202514 73 61 0.0 1.0 0.00 0.06 0.06 76 1007.7
20260506202439 73 69 0.0 1.0 0.00 0.06 0.06 77 1007.7
20260506202332 73 18 0.0 1.0 0.00 0.06 0.06 76 1007.7
20260506202217 73 225 0.0 1.0 0.00 0.06 0.06 76 1007.7
20260506202143 73 355 0.0 1.0 0.00 0.06 0.06 76 1007.7
20260506202028 73 355 0.0 1.0 0.00 0.06 0.06 76 1007.8
20260506201914 73 138 0.0 1.0 0.01 0.06 0.06 76 1007.8
20260506201831 73 28 0.0 1.0 0.01 0.06 0.06 77 1007.8
20260506201718 73 49 0.0 1.0 0.01 0.06 0.06 76 1007.8
20260506201623 72 17 0.0 1.0 0.01 0.06 0.06 78 1007.8
20260506201550 72 307 0.0 1.0 0.01 0.06 0.06 77 1007.3
20260506201509 72 20 0.0 1.0 0.01 0.06 0.06 76 1007.8
20260506201415 72 31 0.0 1.0 0.01 0.06 0.06 77 1007.8
20260506201332 72 331 0.0 1.0 0.01 0.06 0.06 77 1007.8
20260506201238 72 300 0.0 1.0 0.01 0.06 0.06 78 1007.8
20260506201123 72 333 0.0 1.0 0.01 0.06 0.06 77 1007.8
20260506201009 72 5 0.0 7.0 0.01 0.06 0.06 77 1007.8
20260506200915 72 274 0.0 7.0 0.01 0.06 0.06 77 1007.8
20260506200828 72 78 0.0 7.0 0.01 0.06 0.06 79 1007.8
20260506200718 72 80 0.0 7.0 0.01 0.06 0.06 77 1007.8
20260506200624 72 97 0.0 7.0 0.01 0.06 0.06 78 1007.8
20260506200510 72 38 0.0 7.0 0.01 0.06 0.06 78 1007.8
20260506200416 72 44 0.0 7.0 0.01 0.06 0.06 78 1007.8
20260506200349 72 286 1.0 7.0 0.01 0.06 0.06 77 1007.8
20260506200214 72 177 2.0 7.0 0.01 0.06 0.06 77 1007.8
20260506200124 72 273 1.0 5.0 0.01 0.06 0.06 78 1007.8
20260506200044 71 315 0.0 6.0 0.01 0.06 0.06 78 1007.3
20260506200010 72 81 0.0 6.0 0.01 0.06 0.06 78 1007.8
20260506195916 72 16 0.0 6.0 0.01 0.06 0.06 77 1007.8
20260506195829 72 255 0.0 7.0 0.01 0.06 0.06 78 1007.8
20260506195715 72 148 0.0 7.0 0.01 0.06 0.06 79 1007.8
20260506195641 72 78 0.0 7.0 0.01 0.06 0.06 78 1007.8
20260506195510 72 51 1.0 7.0 0.01 0.06 0.06 77 1007.8
20260506195424 72 323 1.0 7.0 0.01 0.06 0.06 77 1007.8
20260506195329 72 64 1.0 7.0 0.01 0.06 0.06 77 1008.1
20260506195215 72 306 0.0 7.0 0.01 0.06 0.06 77 1008.0
20260506195122 72 311 1.0 7.0 0.01 0.06 0.06 77 1008.0
20260506195012 71 5 1.0 7.0 0.01 0.06 0.06 78 1008.1
20260506194918 71 64 0.0 6.0 0.01 0.06 0.06 78 1008.1
20260506194831 71 57 0.0 6.0 0.01 0.06 0.06 79 1008.0
20260506194717 71 312 0.0 6.0 0.01 0.06 0.06 78 1007.9
20260506194623 71 9 0.0 6.0 0.01 0.06 0.06 78 1007.9
20260506194559 71 21 0.0 6.0 0.01 0.06 0.06 78 1007.5
20260506194513 71 93 0.0 0.0 0.01 0.06 0.06 78 1008.0
20260506194419 71 56 0.0 0.0 0.01 0.06 0.06 79 1008.0
20260506194325 71 13 0.0 0.0 0.01 0.06 0.06 78 1007.9
20260506194211 71 34 0.0 0.0 0.01 0.06 0.06 78 1007.9
20260506194124 71 329 0.0 0.0 0.01 0.06 0.06 78 1007.9
20260506194010 71 57 0.0 0.0 0.01 0.06 0.06 78 1008.0
20260506193920 71 235 0.0 0.0 0.01 0.06 0.06 78 1008.0
20260506193826 71 91 0.0 0.0 0.01 0.06 0.06 80 1008.0
20260506193712 71 38 0.0 0.0 0.01 0.06 0.06 79 1008.2
20260506193618 71 276 0.0 0.0 0.01 0.06 0.06 79 1008.2
20260506193531 71 30 0.0 0.0 0.01 0.06 0.06 79 1008.1
20260506193416 71 66 0.0 0.0 0.01 0.06 0.06 79 1008.1
20260506193326 71 62 0.0 0.0 0.01 0.06 0.06 79 1008.1
20260506193212 71 325 0.0 0.0 0.01 0.06 0.06 79 1008.2
20260506193145 71 323 0.0 0.0 0.01 0.06 0.06 79 1008.2
20260506193052 70 24 0.0 0.0 0.01 0.06 0.06 80 1007.6
20260506193010 71 322 0.0 0.0 0.01 0.06 0.06 80 1008.0
20260506192916 71 26 0.0 0.0 0.01 0.06 0.06 79 1008.0
20260506192822 71 348 0.0 0.0 0.01 0.06 0.06 80 1008.0
20260506192712 71 360 0.0 0.0 0.01 0.06 0.06 79 1008.0
20260506192625 71 26 0.0 0.0 0.01 0.06 0.06 79 1008.0
20260506192510 71 49 0.0 0.0 0.01 0.06 0.06 80 1008.0
20260506192416 71 81 0.0 0.0 0.01 0.06 0.06 79 1008.0
20260506192322 71 76 0.0 0.0 0.01 0.06 0.06 80 1008.0
20260506192212 71 98 0.0 0.0 0.01 0.06 0.06 80 1008.0
20260506192125 70 304 0.0 0.0 0.01 0.06 0.06 80 1008.0
20260506192031 70 22 0.0 0.0 0.01 0.06 0.06 81 1008.0
20260506191917 70 302 0.0 0.0 0.00 0.05 0.05 80 1008.1
20260506191823 70 62 0.0 0.0 0.00 0.05 0.05 82 1008.1
20260506191713 70 300 0.0 0.0 0.00 0.05 0.05 82 1008.2
20260506191619 70 294 0.0 1.0 0.00 0.05 0.05 82 1008.2
20260506191532 70 360 0.0 1.0 0.00 0.05 0.05 81 1008.3
20260506191517 69 15 0.0 1.0 0.00 0.05 0.05 81 1007.9
20260506191418 70 26 0.0 1.0 0.00 0.05 0.05 82 1008.4
20260506191345 69 332 0.0 1.0 0.00 0.05 0.05 81 1008.4
20260506191209 69 215 0.0 1.0 0.00 0.05 0.05 82 1008.3
20260506191126 69 23 0.0 1.0 0.00 0.05 0.05 82 1008.3
20260506191032 69 13 0.0 1.0 0.00 0.05 0.05 83 1008.2
20260506190937 69 307 0.0 1.0 0.00 0.05 0.05 82 1008.2
20260506190829 69 308 0.0 1.0 0.00 0.05 0.05 82 1008.2
20260506190715 69 5 0.0 1.0 0.00 0.05 0.05 81 1008.2
20260506190621 69 40 0.0 1.0 0.00 0.05 0.05 82 1008.2
20260506190511 69 17 0.0 1.0 0.00 0.05 0.05 82 1008.2
20260506190417 69 355 0.0 1.0 0.00 0.05 0.05 82 1008.3
20260506190330 69 71 0.0 1.0 0.00 0.05 0.05 82 1008.3
20260506190217 69 69 0.0 1.0 0.00 0.05 0.05 82 1008.4
20260506190122 68 97 0.0 1.0 0.00 0.05 0.05 82 1008.4
20260506190100 68 32 0.0 1.0 0.00 0.05 0.05 82 1008.0
20260506190026 68 136 0.0 1.0 0.00 0.05 0.05 82 1008.5
20260506185921 68 274 0.0 1.0 0.00 0.05 0.05 83 1008.5
20260506185831 68 330 0.0 1.0 0.00 0.05 0.05 83 1008.5
20260506185717 68 297 0.0 1.0 0.00 0.05 0.05 83 1008.5
20260506185643 68 279 0.0 1.0 0.00 0.05 0.05 83 1008.5
20260506185535 68 39 0.0 1.0 0.00 0.05 0.05 83 1008.5
20260506185420 68 55 0.0 0.0 0.00 0.05 0.05 83 1008.5
20260506185310 68 20 0.0 0.0 0.00 0.05 0.05 83 1008.6
20260506185216 68 5 0.0 0.0 0.00 0.05 0.05 82 1008.6
20260506185130 68 360 0.0 0.0 0.00 0.05 0.05 83 1008.6
20260506185035 68 99 0.0 0.0 0.00 0.05 0.05 83 1008.7
20260506184921 68 38 0.0 0.0 0.00 0.05 0.05 83 1008.7
20260506184827 68 5 0.0 0.0 0.00 0.05 0.05 83 1008.7
20260506184737 68 21 0.0 0.0 0.00 0.05 0.05 83 1008.6
20260506184629 68 13 0.0 0.0 0.00 0.05 0.05 83 1008.6
20260506184514 68 57 0.0 0.0 0.00 0.05 0.05 83 1008.5
20260506184506 67 57 0.0 0.0 0.00 0.05 0.05 83 1008.0
20260506184420 68 57 0.0 0.0 0.00 0.05 0.05 83 1008.5
20260506184325 68 71 0.0 0.0 0.00 0.05 0.05 82 1008.5
20260506184212 68 5 0.0 0.0 0.00 0.05 0.05 82 1008.6
20260506184122 68 22 0.0 0.0 0.00 0.05 0.05 82 1008.6
20260506184034 68 331 0.0 0.0 0.00 0.05 0.05 82 1008.7
20260506183921 68 49 0.0 1.0 0.00 0.05 0.05 83 1008.9
20260506183826 68 30 0.0 1.0 0.00 0.05 0.05 82 1008.9
20260506183733 68 43 0.0 1.0 0.00 0.05 0.05 82 1008.9
20260506183624 68 5 0.0 1.0 0.00 0.05 0.05 82 1008.9
20260506183514 68 35 0.0 1.0 0.00 0.05 0.05 82 1008.7
20260506183420 68 311 0.0 1.0 0.00 0.05 0.05 82 1008.7
20260506183326 68 40 0.0 1.0 0.00 0.05 0.05 82 1008.6
20260506183214 68 73 0.0 1.0 0.00 0.05 0.05 82 1008.6
20260506183119 68 46 0.0 1.0 0.00 0.05 0.05 83 1008.6
20260506183026 67 60 0.0 1.0 0.00 0.05 0.05 82 1008.2
20260506183009 68 66 0.0 1.0 0.00 0.05 0.05 82 1008.6
20260506182942 68 66 0.0 1.0 0.00 0.05 0.05 82 1008.6
20260506182827 68 88 0.0 1.0 0.00 0.05 0.05 82 1008.6
20260506182740 68 55 0.0 1.0 0.00 0.05 0.05 82 1008.6
20260506182645 68 70 0.0 1.0 0.00 0.05 0.05 81 1008.8
20260506182510 68 360 0.0 1.0 0.00 0.05 0.05 81 1008.9
20260506182416 68 319 0.0 1.0 0.00 0.05 0.05 81 1008.8
20260506182333 68 318 0.0 1.0 0.00 0.05 0.05 81 1008.8
20260506182219 68 344 0.0 0.0 0.00 0.05 0.05 81 1008.8
20260506182125 68 89 0.0 0.0 0.00 0.05 0.05 82 1008.7
20260506182011 68 84 0.0 0.0 0.00 0.05 0.05 81 1009.0
20260506181918 68 355 0.0 0.0 0.00 0.05 0.05 81 1009.0
20260506181834 68 74 0.0 0.0 0.00 0.05 0.05 81 1009.0
20260506181720 68 84 0.0 0.0 0.00 0.05 0.05 81 1008.8
20260506181626 68 71 0.0 0.0 0.00 0.05 0.05 81 1008.7
20260506181600 68 81 0.0 0.0 0.00 0.05 0.05 81 1008.2
20260506181509 68 50 0.0 0.0 0.00 0.05 0.05 81 1008.9
20260506181415 68 103 0.0 0.0 0.00 0.05 0.05 81 1009.0
20260506181321 68 21 0.0 0.0 0.00 0.05 0.05 81 1009.0
20260506181211 69 73 0.0 0.0 0.00 0.05 0.05 80 1008.8
20260506181124 69 341 0.0 0.0 0.00 0.05 0.05 81 1008.8
20260506181010 69 24 0.0 0.0 0.00 0.05 0.05 81 1008.6
20260506180916 69 61 0.0 0.0 0.00 0.05 0.05 81 1008.7
20260506180849 69 34 0.0 0.0 0.00 0.05 0.05 81 1008.7
20260506180718 69 46 0.0 0.0 0.00 0.05 0.05 81 1008.8
20260506180624 69 68 0.0 0.0 0.00 0.05 0.05 81 1008.8
20260506180510 69 292 0.0 0.0 0.00 0.05 0.05 81 1008.9
20260506180416 69 15 0.0 0.0 0.00 0.05 0.05 80 1008.8
20260506180322 69 25 0.0 0.0 0.00 0.05 0.05 80 1008.8
20260506180235 69 78 0.0 0.0 0.00 0.05 0.05 81 1008.7
20260506180124 69 56 0.0 0.0 0.00 0.05 0.05 81 1008.7
20260506180051 69 33 0.0 0.0 0.00 0.05 0.05 80 1008.2
20260506180010 69 31 0.0 0.0 0.00 0.05 0.05 81 1008.9
20260506175916 69 46 0.0 0.0 0.00 0.05 0.05 81 1008.9
20260506175822 69 54 0.0 0.0 0.00 0.05 0.05 80 1008.9
20260506175735 69 53 0.0 0.0 0.00 0.05 0.05 80 1008.8
20260506175620 69 95 0.0 0.0 0.00 0.05 0.05 79 1008.8
20260506175511 69 97 0.0 0.0 0.00 0.05 0.05 80 1008.9
20260506175418 70 334 0.0 0.0 0.00 0.05 0.05 79 1008.9
20260506175351 70 97 0.0 0.0 0.00 0.05 0.05 79 1008.8
20260506175216 70 89 0.0 0.0 0.00 0.05 0.05 79 1009.0
20260506175122 70 12 0.0 0.0 0.00 0.05 0.05 79 1009.0
20260506175011 70 79 0.0 0.0 0.00 0.05 0.05 79 1009.0
20260506174918 70 44 0.0 0.0 0.00 0.05 0.05 79 1009.0
20260506174851 70 346 0.0 0.0 0.00 0.05 0.05 79 1009.0
20260506174715 70 32 0.0 0.0 0.00 0.05 0.05 79 1009.0
20260506174618 70 246 0.0 0.0 0.00 0.05 0.05 79 1009.0
20260506174554 69 69 0.0 0.0 0.00 0.05 0.05 79 1008.5
20260506174524 70 58 0.0 0.0 0.00 0.05 0.05 79 1009.0
20260506174416 70 223 0.0 0.0 0.00 0.05 0.05 79 1009.1
20260506174328 70 207 0.0 0.0 0.00 0.05 0.05 79 1009.1
20260506174215 70 10 0.0 0.0 0.00 0.05 0.05 81 1009.0
20260506174140 70 88 0.0 0.0 0.00 0.05 0.05 80 1009.0
20260506174034 70 5 0.0 0.0 0.00 0.05 0.05 79 1008.9
20260506173911 70 297 0.0 0.0 0.00 0.05 0.05 80 1008.9
20260506173828 70 63 0.0 0.0 0.00 0.05 0.05 80 1008.9
20260506173511 70 348 0.0 0.0 0.00 0.05 0.05 80 1009.0
20260506173417 70 17 0.0 0.0 0.00 0.05 0.05 80 1008.9
20260506173350 70 79 0.0 0.0 0.00 0.05 0.05 80 1008.9
20260506173215 70 67 0.0 0.0 0.00 0.05 0.05 80 1008.9
20260506173126 69 52 0.0 0.0 0.00 0.05 0.05 81 1008.4
20260506173011 70 52 0.0 0.0 0.00 0.05 0.05 80 1008.9
20260506172917 70 54 0.0 0.0 0.00 0.05 0.05 80 1009.0
20260506172823 70 76 0.0 0.0 0.00 0.05 0.05 80 1009.0
20260506172709 69 57 0.0 0.0 0.00 0.05 0.05 82 1008.9
20260506172642 69 31 0.0 0.0 0.00 0.05 0.05 80 1008.9
20260506172531 69 18 0.0 0.0 0.00 0.05 0.05 80 1008.8
20260506172443 69 86 0.0 0.0 0.00 0.05 0.05 81 1008.8
20260506172355 69 64 0.0 0.0 0.00 0.05 0.05 81 1008.8
20260506172219 69 69 0.0 0.0 0.00 0.05 0.05 81 1008.9
20260506172125 69 29 0.0 0.0 0.00 0.05 0.05 81 1008.9
20260506172011 69 24 0.0 0.0 0.00 0.05 0.05 81 1008.8
20260506171917 69 19 0.0 0.0 0.00 0.05 0.05 80 1008.8
20260506171834 69 19 0.0 0.0 0.00 0.05 0.05 81 1008.8
20260506171740 69 19 0.0 0.0 0.00 0.05 0.05 82 1008.8
20260506171639 69 325 0.0 0.0 0.00 0.05 0.05 81 1008.2
20260506171625 69 325 0.0 0.0 0.00 0.05 0.05 81 1008.8
20260506171538 69 308 0.0 0.0 0.00 0.05 0.05 80 1008.8
20260506171443 69 5 0.0 0.0 0.00 0.05 0.05 81 1008.8
20260506171335 69 25 0.0 0.0 0.00 0.05 0.05 81 1008.9
20260506171225 69 342 0.0 0.0 0.00 0.05 0.05 82 1008.9
20260506171111 69 342 0.0 0.0 0.00 0.05 0.05 81 1008.8
20260506171017 69 34 0.0 0.0 0.00 0.05 0.05 81 1008.7
20260506170950 69 207 0.0 0.0 0.00 0.05 0.05 81 1008.7
20260506170835 69 261 0.0 0.0 0.00 0.05 0.05 81 1009.0
20260506170740 69 219 0.0 0.0 0.00 0.05 0.05 80 1009.0
20260506170631 69 298 0.0 0.0 0.00 0.05 0.05 82 1009.2
20260506170541 69 105 0.0 0.0 0.00 0.05 0.05 81 1009.2
20260506170453 69 70 0.0 0.0 0.00 0.05 0.05 81 1009.2
20260506170318 69 22 0.0 0.0 0.00 0.05 0.05 81 1009.2
20260506170224 69 92 0.0 0.0 0.00 0.05 0.05 82 1009.3
20260506170130 69 355 0.0 0.0 0.00 0.05 0.05 81 1009.3
20260506170022 69 317 0.0 0.0 0.00 0.05 0.05 81 1009.3
20260506170011 68 345 0.0 0.0 0.00 0.05 0.05 81 1008.6
20260506165911 69 74 0.0 0.0 0.00 0.05 0.05 80 1009.1
20260506165837 68 40 0.0 0.0 0.00 0.05 0.05 82 1009.1
20260506165730 68 308 0.0 0.0 0.00 0.05 0.05 82 1009.1
20260506165635 68 60 0.0 0.0 0.00 0.05 0.05 83 1009.1
20260506165521 68 50 0.0 0.0 0.00 0.05 0.05 82 1009.1
20260506165427 68 78 0.0 0.0 0.00 0.05 0.05 82 1009.2
20260506165317 68 327 0.0 0.0 0.00 0.05 0.05 82 1009.1
20260506165223 68 321 0.0 0.0 0.00 0.05 0.05 82 1009.1
20260506165109 68 27 0.0 0.0 0.00 0.05 0.05 82 1009.1
20260506165022 68 34 0.0 0.0 0.00 0.05 0.05 82 1009.1
20260506164948 68 299 0.0 0.0 0.00 0.05 0.05 82 1009.1
20260506164809 68 330 0.0 0.0 0.00 0.05 0.05 82 1009.2
20260506164743 68 306 0.0 0.0 0.00 0.05 0.05 81 1009.2
20260506164630 68 304 0.0 0.0 0.00 0.05 0.05 82 1009.1
20260506164546 67 277 0.0 0.0 0.00 0.05 0.05 82 1008.6
20260506164425 68 347 0.0 0.0 0.00 0.05 0.05 82 1009.1
20260506164311 68 10 0.0 0.0 0.00 0.05 0.05 82 1009.0
20260506164218 68 42 0.0 0.0 0.00 0.05 0.05 82 1009.0
20260506164123 68 77 0.0 0.0 0.00 0.05 0.05 82 1009.0
20260506164013 68 275 0.0 0.0 0.00 0.05 0.05 84 1009.1
20260506163946 68 178 0.0 0.0 0.00 0.05 0.05 84 1009.1
20260506163811 67 32 0.0 0.0 0.00 0.05 0.05 84 1009.3
20260506163717 67 117 0.0 0.0 0.00 0.05 0.05 84 1009.4
20260506163623 67 104 0.0 0.0 0.00 0.05 0.05 83 1009.4
20260506163513 67 94 0.0 0.0 0.00 0.05 0.05 83 1009.2
20260506163426 67 342 0.0 0.0 0.00 0.05 0.05 83 1009.2
20260506163312 67 355 0.0 0.0 0.00 0.05 0.05 83 1009.1
20260506163218 67 5 0.0 0.0 0.00 0.05 0.05 82 1009.1
20260506163151 67 50 0.0 0.0 0.00 0.05 0.05 83 1009.2
20260506163017 67 33 0.0 0.0 0.00 0.05 0.05 83 1009.2
20260506163009 67 33 0.0 0.0 0.00 0.05 0.05 83 1008.6
20260506162926 67 26 0.0 0.0 0.00 0.05 0.05 83 1009.2
20260506162812 67 46 0.0 0.0 0.00 0.05 0.05 84 1009.3
20260506162718 67 36 0.0 0.0 0.00 0.05 0.05 83 1009.3
20260506162651 67 44 0.0 0.0 0.00 0.05 0.05 84 1009.4
20260506162516 67 325 0.0 0.0 0.00 0.05 0.05 84 1009.2
20260506162422 67 5 0.0 0.0 0.00 0.05 0.05 85 1009.2
20260506162332 67 76 0.0 0.0 0.00 0.05 0.05 84 1009.2
20260506162224 67 89 0.0 0.0 0.00 0.05 0.05 84 1009.2
20260506162150 67 11 0.0 0.0 0.00 0.05 0.05 84 1009.4
20260506162015 67 78 0.0 0.0 0.00 0.05 0.05 84 1009.4
20260506161929 67 57 0.0 0.0 0.00 0.05 0.05 84 1009.4
20260506161833 67 77 0.0 0.0 0.00 0.05 0.05 84 1009.4
20260506161723 67 83 0.0 0.0 0.00 0.05 0.05 84 1009.4
20260506161610 66 44 0.0 0.0 0.00 0.05 0.05 84 1009.6
20260506161553 66 47 0.0 0.0 0.00 0.05 0.05 84 1009.0
20260506161516 66 351 0.0 0.0 0.00 0.05 0.05 85 1009.6
20260506161421 66 27 0.0 0.0 0.00 0.05 0.05 84 1009.6
20260506161334 66 65 0.0 0.0 0.00 0.05 0.05 84 1009.5
20260506161221 66 107 0.0 0.0 0.00 0.05 0.05 85 1009.6
20260506161110 66 34 0.0 0.0 0.00 0.05 0.05 84 1009.6
20260506161016 66 61 0.0 0.0 0.00 0.05 0.05 84 1009.6
20260506160922 66 36 0.0 0.0 0.00 0.05 0.05 85 1009.6
20260506160855 66 360 0.0 0.0 0.00 0.05 0.05 84 1009.6
20260506160720 66 42 0.0 0.0 0.00 0.05 0.05 84 1009.6
20260506160610 66 41 0.0 0.0 0.00 0.05 0.05 84 1009.7
20260506160516 66 101 0.0 0.0 0.00 0.05 0.05 84 1009.7
20260506160422 66 70 0.0 0.0 0.00 0.05 0.05 85 1009.7
20260506160335 66 288 0.0 0.0 0.00 0.05 0.05 85 1009.8
20260506160223 66 78 0.0 0.0 0.00 0.05 0.05 85 1009.7
20260506160147 66 62 0.0 0.0 0.00 0.05 0.05 85 1009.7
20260506160059 66 114 0.0 0.0 0.00 0.05 0.05 85 1009.7
20260506160014 66 123 0.0 0.0 0.00 0.05 0.05 85 1009.2
20260506155945 66 108 0.0 0.0 0.00 0.05 0.05 85 1009.8
20260506155810 66 85 0.0 0.0 0.00 0.05 0.05 86 1009.8
20260506155716 66 255 0.0 0.0 0.00 0.05 0.05 85 1009.8
20260506155629 66 254 0.0 0.0 0.00 0.05 0.05 85 1009.8
20260506155515 66 62 0.0 0.0 0.00 0.05 0.05 85 1009.9
20260506155421 66 267 0.0 0.0 0.00 0.05 0.05 86 1009.9
20260506155331 66 304 0.0 0.0 0.00 0.05 0.05 85 1009.7
20260506155223 66 286 0.0 0.0 0.00 0.05 0.05 85 1009.7
20260506155129 66 304 0.0 0.0 0.00 0.05 0.05 85 1009.7
20260506155015 66 106 0.0 0.0 0.00 0.05 0.05 85 1009.8
20260506154921 66 89 0.0 0.0 0.00 0.05 0.05 86 1009.8
20260506154811 66 54 0.0 0.0 0.00 0.05 0.05 87 1009.7
20260506154717 66 47 0.0 0.0 0.00 0.05 0.05 87 1009.8
20260506154630 66 47 0.0 0.0 0.00 0.05 0.05 87 1009.8
20260506154615 65 47 0.0 0.0 0.00 0.05 0.05 87 1009.3
20260506154536 66 28 0.0 0.0 0.00 0.05 0.05 86 1009.9
20260506154421 66 69 0.0 0.0 0.00 0.05 0.05 87 1009.9
20260506154334 65 22 0.0 0.0 0.00 0.05 0.05 87 1009.9
20260506154224 65 67 0.0 0.0 0.00 0.05 0.05 87 1009.9
20260506154130 65 314 0.0 0.0 0.00 0.05 0.05 87 1009.8
20260506154015 65 314 0.0 0.0 0.00 0.05 0.05 87 1009.7
20260506153921 65 15 0.0 0.0 0.00 0.05 0.05 87 1009.7
20260506153834 65 269 0.0 0.0 0.00 0.05 0.05 88 1009.7
20260506153720 65 296 0.0 0.0 0.00 0.05 0.05 87 1009.7
20260506153610 65 281 0.0 0.0 0.00 0.05 0.05 88 1009.8
20260506153516 65 14 0.0 0.0 0.00 0.05 0.05 88 1009.8
20260506153449 65 38 0.0 0.0 0.00 0.05 0.05 88 1009.8
20260506153315 64 326 0.0 0.0 0.00 0.05 0.05 88 1009.9
20260506153220 64 315 0.0 0.0 0.00 0.05 0.05 88 1009.9
20260506153157 64 348 0.0 0.0 0.00 0.05 0.05 88 1009.3
20260506153146 64 360 0.0 0.0 0.00 0.05 0.05 88 1009.9
20260506153038 64 71 0.0 0.0 0.00 0.05 0.05 88 1010.0
20260506152926 64 32 0.0 0.0 0.00 0.05 0.05 88 1010.0
20260506152812 64 334 0.0 0.0 0.00 0.05 0.05 88 1009.9
20260506152719 64 318 0.0 0.0 0.00 0.05 0.05 88 1009.9
20260506152631 64 80 0.0 0.0 0.00 0.05 0.05 88 1009.8
20260506152517 64 77 0.0 0.0 0.00 0.05 0.05 88 1009.8
20260506152422 64 92 0.0 0.0 0.00 0.05 0.05 88 1009.8
20260506152313 64 5 0.0 0.0 0.00 0.05 0.05 88 1009.8
20260506152227 64 5 0.0 0.0 0.00 0.05 0.05 88 1009.8
20260506152131 64 345 0.0 0.0 0.00 0.05 0.05 88 1009.9
20260506152017 64 65 0.0 0.0 0.00 0.05 0.05 88 1009.8
20260506151923 64 303 0.0 0.0 0.00 0.05 0.05 88 1009.8
20260506151813 64 355 0.0 0.0 0.00 0.05 0.05 89 1009.8
20260506151719 63 42 0.0 0.0 0.00 0.05 0.05 89 1009.8
20260506151632 63 46 0.0 0.0 0.00 0.05 0.05 89 1009.7
20260506151519 63 319 0.0 0.0 0.00 0.05 0.05 89 1009.8
20260506151510 63 319 0.0 0.0 0.00 0.05 0.05 89 1009.2
20260506151424 63 319 0.0 0.0 0.00 0.05 0.05 89 1009.8
20260506151314 63 298 0.0 0.0 0.00 0.05 0.05 89 1009.9
20260506151220 63 298 0.0 0.0 0.00 0.05 0.05 89 1009.9
20260506151126 63 29 0.0 0.0 0.00 0.05 0.05 89 1009.9
20260506151012 63 46 0.0 0.0 0.00 0.05 0.05 89 1009.8
20260506150925 63 46 0.0 0.0 0.00 0.05 0.05 89 1009.8
20260506150811 63 50 0.0 0.0 0.00 0.05 0.05 89 1009.9
20260506150722 63 84 0.0 0.0 0.00 0.05 0.05 89 1009.9
20260506150628 63 84 0.0 0.0 0.00 0.05 0.05 89 1009.9
20260506150514 63 63 0.0 0.0 0.00 0.05 0.05 89 1009.9
20260506150447 63 70 0.0 0.0 0.00 0.05 0.05 89 1009.9
20260506150312 63 303 0.0 0.0 0.00 0.05 0.05 89 1009.9
20260506150238 63 297 0.0 0.0 0.00 0.05 0.05 89 1009.9
20260506150134 63 297 0.0 0.0 0.00 0.05 0.05 89 1009.8
20260506150020 63 325 0.0 0.0 0.00 0.05 0.05 89 1009.7
20260506150007 63 318 0.0 0.0 0.00 0.05 0.05 89 1009.1
20260506145926 63 20 0.0 0.0 0.00 0.05 0.05 89 1009.7
20260506145812 63 341 0.0 0.0 0.00 0.05 0.05 89 1009.7
20260506145718 63 342 0.0 0.0 0.00 0.05 0.05 89 1009.7
20260506145624 63 15 0.0 0.0 0.00 0.05 0.05 89 1009.7
20260506145514 63 69 0.0 0.0 0.00 0.05 0.05 89 1009.6
20260506145447 63 5 0.0 0.0 0.00 0.05 0.05 89 1009.6
20260506145312 63 39 0.0 0.0 0.00 0.05 0.05 89 1009.8
20260506145218 63 80 0.0 0.0 0.00 0.05 0.05 89 1009.8
20260506145131 63 15 0.0 0.0 0.00 0.05 0.05 89 1009.8
20260506145021 63 26 0.0 0.0 0.00 0.05 0.05 89 1009.9
20260506144927 63 86 0.0 0.0 0.00 0.05 0.05 90 1009.9
20260506144813 63 49 0.0 0.0 0.00 0.05 0.05 90 1009.8
20260506144719 63 52 0.0 0.0 0.00 0.05 0.05 90 1009.8
20260506144639 63 52 0.0 0.0 0.00 0.05 0.05 90 1009.2
20260506144625 63 52 0.0 0.0 0.00 0.05 0.05 90 1009.8
20260506144538 63 108 0.0 0.0 0.00 0.05 0.05 90 1009.9
20260506144427 63 108 0.0 0.0 0.00 0.05 0.05 90 1009.9
20260506144313 63 48 0.0 0.0 0.00 0.05 0.05 90 1009.9
20260506144246 63 48 0.0 0.0 0.00 0.05 0.05 90 1009.9
20260506144111 63 38 0.0 0.0 0.00 0.05 0.05 90 1009.9
20260506144017 63 355 0.0 0.0 0.00 0.05 0.05 90 1009.9
20260506143922 63 355 0.0 0.0 0.00 0.05 0.05 90 1009.9
20260506143812 63 30 0.0 0.0 0.00 0.05 0.05 90 1009.9
20260506143719 63 55 0.0 0.0 0.00 0.05 0.05 90 1009.9
20260506143632 63 39 0.0 0.0 0.00 0.05 0.05 90 1009.9
20260506143538 63 307 0.0 0.0 0.00 0.05 0.05 90 1010.0
20260506143429 63 339 0.0 0.0 0.00 0.05 0.05 90 1010.0
20260506143315 63 73 0.0 0.0 0.00 0.05 0.05 90 1010.0
20260506143225 63 64 0.0 0.0 0.00 0.05 0.05 90 1010.0
20260506143131 63 63 0.0 0.0 0.00 0.05 0.05 90 1010.0
20260506143023 63 57 0.0 0.0 0.00 0.05 0.05 91 1010.0
20260506143013 62 61 0.0 0.0 0.00 0.05 0.05 91 1009.5
20260506142929 63 146 0.0 0.0 0.00 0.05 0.05 91 1010.1
20260506142815 63 320 0.0 0.0 0.00 0.05 0.05 91 1010.1
20260506142721 63 294 0.0 0.0 0.00 0.05 0.05 91 1010.1
20260506142611 62 289 0.0 0.0 0.00 0.05 0.05 91 1010.0
20260506142517 62 313 0.0 0.0 0.00 0.05 0.05 91 1010.0
20260506142430 62 39 0.0 0.0 0.00 0.05 0.05 92 1010.0
20260506142315 62 58 0.0 0.0 0.00 0.05 0.05 91 1009.9
20260506142221 62 52 0.0 0.0 0.00 0.05 0.05 91 1009.9
20260506142134 62 98 0.0 0.0 0.00 0.05 0.05 91 1009.9
20260506142024 62 98 0.0 0.0 0.00 0.05 0.05 91 1009.9
20260506141930 62 103 0.0 0.0 0.00 0.05 0.05 91 1010.0
20260506141816 62 79 0.0 0.0 0.00 0.05 0.05 91 1010.1
20260506141722 62 49 0.0 0.0 0.00 0.05 0.05 92 1010.1
20260506141628 62 26 0.0 0.0 0.00 0.05 0.05 92 1010.2
20260506141536 62 19 0.0 0.0 0.00 0.05 0.05 92 1009.7
20260506141518 62 19 0.0 0.0 0.00 0.05 0.05 92 1010.3
20260506141428 62 47 0.0 0.0 0.00 0.05 0.05 92 1010.3
20260506141314 62 34 0.0 0.0 0.00 0.05 0.05 92 1010.2
20260506141220 62 46 0.0 0.0 0.00 0.05 0.05 92 1010.2
20260506141154 62 46 0.0 0.0 0.00 0.05 0.05 92 1010.2
20260506141011 62 46 0.0 0.0 0.00 0.05 0.05 92 1010.2
20260506140928 62 44 0.0 0.0 0.00 0.05 0.05 92 1010.2
20260506140834 62 37 0.0 0.0 0.00 0.05 0.05 92 1010.1
20260506140716 62 13 0.0 0.0 0.00 0.05 0.05 92 1010.1
20260506140629 62 25 0.0 0.0 0.00 0.05 0.05 92 1010.1
20260506140514 62 29 0.0 0.0 0.01 0.05 0.05 92 1010.0
20260506140421 62 24 0.0 0.0 0.01 0.05 0.05 92 1010.0
20260506140311 62 22 0.0 0.0 0.01 0.05 0.05 92 1010.0
20260506140217 62 49 0.0 0.0 0.01 0.05 0.05 92 1010.1
20260506140123 61 40 0.0 0.0 0.01 0.05 0.05 92 1010.1
20260506140035 61 40 0.0 0.0 0.01 0.05 0.05 92 1009.5
20260506140008 61 40 0.0 0.0 0.01 0.05 0.05 92 1010.1
20260506135922 61 34 0.0 0.0 0.01 0.05 0.05 92 1010.1
20260506135812 61 34 0.0 0.0 0.01 0.05 0.05 92 1010.1
20260506135718 61 34 0.0 0.0 0.01 0.05 0.05 92 1010.1
20260506135623 61 27 0.0 0.0 0.01 0.05 0.05 92 1010.2
20260506135510 61 88 0.0 0.0 0.01 0.05 0.05 93 1010.2
20260506135424 61 68 0.0 0.0 0.01 0.05 0.05 93 1010.2
20260506135329 61 53 0.0 0.0 0.02 0.05 0.05 93 1010.3
20260506135219 61 19 0.0 0.0 0.02 0.05 0.05 93 1010.3
20260506135125 61 19 0.0 0.0 0.02 0.05 0.05 93 1010.3
20260506135030 61 19 0.0 0.0 0.02 0.05 0.05 93 1010.3
20260506134922 61 19 0.0 0.0 0.02 0.05 0.05 93 1010.3
20260506134849 61 19 0.0 0.0 0.02 0.05 0.05 93 1010.3
20260506134713 61 19 0.0 0.0 0.02 0.05 0.05 93 1010.3
20260506134630 61 19 0.0 0.0 0.02 0.05 0.05 93 1010.3
20260506134516 61 44 0.0 0.0 0.02 0.05 0.05 93 1010.2
20260506134506 61 44 0.0 0.0 0.02 0.05 0.05 93 1009.6
20260506134421 61 67 0.0 0.0 0.02 0.05 0.05 93 1010.2
20260506134327 61 55 0.0 0.0 0.02 0.05 0.05 93 1010.3
20260506134213 61 74 0.0 0.0 0.02 0.05 0.05 93 1010.5
20260506134146 61 74 0.0 0.0 0.02 0.05 0.05 93 1010.5
20260506134015 61 74 0.0 0.0 0.02 0.05 0.05 93 1010.5
20260506133921 61 74 0.0 0.0 0.02 0.05 0.05 93 1010.5
20260506133855 61 74 0.0 0.0 0.02 0.05 0.05 93 1010.6
20260506133716 61 74 0.0 0.0 0.02 0.05 0.05 93 1010.5
20260506133642 61 38 0.0 0.0 0.02 0.05 0.05 93 1010.5
20260506133534 61 38 0.0 0.0 0.02 0.05 0.05 93 1010.5
20260506133419 61 38 0.0 0.0 0.02 0.05 0.05 93 1010.5
20260506133309 61 38 0.0 0.0 0.02 0.05 0.05 93 1010.5
20260506133215 61 38 0.0 0.0 0.02 0.05 0.05 93 1010.4
20260506133121 61 38 0.0 0.0 0.02 0.05 0.05 93 1010.4
20260506133034 61 38 0.0 0.0 0.02 0.05 0.05 93 1010.4
20260506133017 61 38 0.0 0.0 0.02 0.05 0.05 93 1009.8
20260506132919 61 38 0.0 0.0 0.02 0.05 0.05 93 1010.4
20260506132809 61 38 0.0 0.0 0.03 0.05 0.05 93 1010.2
20260506132715 61 38 0.0 0.0 0.03 0.05 0.05 93 1010.2
20260506132621 61 38 0.0 0.0 0.03 0.05 0.05 93 1010.2
20260506132535 61 38 0.0 0.0 0.03 0.05 0.05 93 1010.3
20260506132413 61 38 0.0 0.0 0.03 0.05 0.05 93 1010.2
20260506132326 61 38 0.0 0.0 0.03 0.05 0.05 93 1010.2
20260506132236 61 38 0.0 0.0 0.03 0.05 0.05 93 1010.2
20260506132121 61 38 0.0 0.0 0.03 0.05 0.05 93 1010.2
20260506132035 61 38 0.0 0.0 0.04 0.05 0.05 93 1010.2
20260506131920 61 38 0.0 0.0 0.04 0.05 0.05 93 1010.2
20260506131826 61 38 0.0 0.0 0.04 0.05 0.05 93 1010.3
20260506131712 61 38 0.0 0.0 0.04 0.05 0.05 93 1010.2
20260506131629 61 38 0.0 0.0 0.04 0.05 0.05 93 1010.2
20260506131535 61 38 0.0 0.0 0.04 0.05 0.05 93 1010.2
20260506131510 61 38 0.0 0.0 0.04 0.05 0.05 93 1009.6
20260506131421 61 38 0.0 0.0 0.04 0.05 0.05 93 1010.2
20260506131327 61 38 0.0 0.0 0.04 0.05 0.05 93 1010.3
20260506131213 61 38 0.0 0.0 0.04 0.05 0.05 93 1010.3
20260506131123 61 38 0.0 0.0 0.04 0.05 0.05 93 1010.3
20260506131009 61 38 0.0 0.0 0.04 0.05 0.05 93 1010.2
20260506130922 61 38 0.0 0.0 0.04 0.05 0.05 93 1010.2
20260506130809 61 38 0.0 0.0 0.04 0.05 0.05 93 1010.2
20260506130714 61 38 0.0 0.0 0.04 0.05 0.05 93 1010.1
20260506130620 61 38 0.0 0.0 0.04 0.05 0.05 93 1010.1
20260506130509 61 38 0.0 0.0 0.03 0.04 0.04 93 1010.1
20260506130416 61 38 0.0 0.0 0.03 0.04 0.04 93 1010.0
20260506130349 61 38 0.0 0.0 0.03 0.04 0.04 93 1010.0
20260506130213 61 38 0.0 0.0 0.03 0.04 0.04 93 1010.0
20260506130147 61 38 0.0 0.0 0.03 0.04 0.04 93 1010.0
20260506130011 61 38 0.0 0.0 0.03 0.04 0.04 93 1010.1
20260506130003 60 38 0.0 0.0 0.03 0.04 0.04 93 1009.6
20260506125922 61 38 0.0 0.0 0.03 0.04 0.04 93 1010.1
20260506125854 61 38 0.0 0.0 0.03 0.04 0.04 93 1010.2
20260506125721 61 38 0.0 0.0 0.03 0.04 0.04 93 1010.1
20260506125625 61 38 0.0 0.0 0.03 0.04 0.04 93 1010.1
20260506125511 61 38 0.0 0.0 0.04 0.04 0.04 93 1010.2
20260506125417 61 38 0.0 0.0 0.03 0.03 0.03 93 1010.2
20260506125327 61 38 0.0 0.0 0.03 0.03 0.03 93 1010.2
20260506125213 61 38 0.0 0.0 0.03 0.03 0.03 93 1010.3
20260506125127 61 38 0.0 0.0 0.03 0.03 0.03 93 1010.3
20260506125012 61 38 0.0 0.0 0.03 0.03 0.03 93 1010.3
20260506124918 61 38 0.0 0.0 0.03 0.03 0.03 93 1010.3
20260506124828 61 38 0.0 0.0 0.03 0.03 0.03 93 1010.3
20260506124714 61 38 0.0 0.0 0.03 0.03 0.03 93 1010.3
20260506124620 61 38 0.0 0.0 0.03 0.03 0.03 93 1010.3
20260506124533 61 38 0.0 0.0 0.03 0.03 0.03 93 1010.3
20260506124516 60 38 0.0 0.0 0.03 0.03 0.03 93 1009.6
20260506124418 61 38 0.0 0.0 0.03 0.03 0.03 93 1010.2
20260506124324 61 38 0.0 0.0 0.03 0.03 0.03 93 1010.1
20260506124214 61 38 0.0 0.0 0.03 0.03 0.03 93 1010.2
20260506124120 61 38 0.0 0.0 0.03 0.03 0.03 93 1010.2
20260506124026 61 38 0.0 0.0 0.03 0.03 0.03 93 1010.1
20260506123912 61 38 0.0 0.0 0.03 0.03 0.03 93 1010.1
20260506123825 61 38 0.0 0.0 0.03 0.03 0.03 93 1010.1
20260506123735 61 38 0.0 0.0 0.03 0.03 0.03 93 1010.1
20260506123620 61 38 0.0 0.0 0.03 0.03 0.03 93 1010.1
20260506123533 61 38 0.0 0.0 0.03 0.03 0.03 93 1010.1
20260506123419 61 38 0.0 0.0 0.03 0.03 0.03 93 1010.1
20260506123325 61 38 0.0 0.0 0.03 0.03 0.03 93 1010.1
20260506123211 60 38 0.0 0.0 0.03 0.03 0.03 93 1010.2
20260506123121 60 38 0.0 0.0 0.03 0.03 0.03 93 1010.2
20260506123044 60 38 0.0 0.0 0.03 0.03 0.03 93 1009.7
20260506123027 60 38 0.0 0.0 0.03 0.03 0.03 93 1010.2
20260506122913 60 38 0.0 0.0 0.02 0.02 0.02 93 1010.3
20260506122826 60 38 0.0 0.0 0.02 0.02 0.02 93 1010.3
20260506122733 60 38 0.0 0.0 0.02 0.02 0.02 93 1010.1
20260506122645 60 38 0.0 0.0 0.02 0.02 0.02 93 1010.1
20260506122514 60 38 0.0 0.0 0.02 0.02 0.02 93 1010.1
20260506122440 60 38 0.0 0.0 0.02 0.02 0.02 93 1010.1
20260506122332 60 38 0.0 0.0 0.02 0.02 0.02 93 1010.1
20260506122211 60 38 0.0 0.0 0.02 0.02 0.02 92 1010.2
20260506122124 60 38 0.0 0.0 0.02 0.02 0.02 92 1010.2
20260506122010 60 38 0.0 0.0 0.01 0.01 0.01 92 1010.3
20260506121940 60 38 0.0 0.0 0.01 0.01 0.01 92 1010.3
20260506121832 60 38 0.0 0.0 0.01 0.01 0.01 92 1010.3
20260506121718 60 38 0.0 0.0 0.01 0.01 0.01 92 1010.3
20260506121644 60 38 0.0 0.0 0.01 0.01 0.01 92 1010.4
20260506121535 60 38 0.0 0.0 0.01 0.01 0.01 92 1010.4
20260506121523 60 38 0.0 0.0 0.01 0.01 0.01 92 1009.8
20260506121422 60 38 0.0 0.0 0.01 0.01 0.01 92 1010.3
20260506121311 60 38 0.0 0.0 0.01 0.01 0.01 92 1010.2
20260506121217 60 38 0.0 0.0 0.01 0.01 0.01 92 1010.2
20260506121123 60 38 0.0 0.0 0.01 0.01 0.01 92 1010.2
20260506121009 60 38 0.0 0.0 0.01 0.01 0.01 92 1010.3
20260506120916 60 38 0.0 0.0 0.01 0.01 0.01 92 1010.3
20260506120828 60 38 0.0 0.0 0.01 0.01 0.01 92 1010.3
20260506120718 60 38 0.0 0.0 0.01 0.01 0.01 92 1010.3
20260506120646 60 38 0.0 0.0 0.01 0.01 0.01 92 1010.2
20260506120510 60 38 0.0 0.0 0.01 0.01 0.01 92 1010.1
20260506120424 60 38 0.0 0.0 0.01 0.01 0.01 92 1010.1
20260506120329 60 38 0.0 0.0 0.01 0.01 0.01 92 1010.0
20260506120236 60 38 0.0 0.0 0.01 0.01 0.01 92 1010.0
20260506120137 60 38 0.0 0.0 0.01 0.01 0.01 92 1009.5
20260506120124 60 38 0.0 0.0 0.01 0.01 0.01 92 1010.0
20260506120038 60 38 0.0 0.0 0.01 0.01 0.01 92 1010.1
20260506115922 60 38 0.0 0.0 0.01 0.01 0.01 92 1010.1
20260506115828 60 38 0.0 0.0 0.01 0.01 0.01 92 1010.1
20260506115741 60 38 0.0 0.0 0.01 0.01 0.01 92 1010.1
20260506115626 60 38 0.0 0.0 0.01 0.01 0.01 92 1010.2
20260506115516 60 38 0.0 0.0 0.00 0.00 0.00 92 1010.1
20260506115422 60 38 0.0 0.0 0.00 0.00 0.00 92 1010.1
20260506115309 60 38 0.0 0.0 0.00 0.00 0.00 92 1010.1
20260506115242 60 38 0.0 0.0 0.00 0.00 0.00 92 1010.1
20260506115127 60 38 0.0 0.0 0.00 0.00 0.00 91 1010.1
20260506115013 60 38 0.0 0.0 0.00 0.00 0.00 92 1010.0
20260506114923 60 38 0.0 0.0 0.00 0.00 0.00 92 1010.0
20260506114810 60 38 0.0 0.0 0.00 0.00 0.00 92 1010.1
20260506114722 60 38 0.0 0.0 0.00 0.00 0.00 92 1010.1
20260506114648 60 38 0.0 0.0 0.00 0.00 0.00 92 1010.0
20260506114540 60 38 0.0 0.0 0.00 0.00 0.00 92 1010.1
20260506114518 60 38 0.0 0.0 0.00 0.00 0.00 92 1009.5
20260506114445 60 38 0.0 0.0 0.00 0.00 0.00 91 1010.1
20260506114330 60 38 0.0 0.0 0.00 0.00 0.00 91 1010.0
20260506114246 60 38 0.0 0.0 0.00 0.00 0.00 91 1010.0
20260506114111 60 38 0.0 0.0 0.00 0.00 0.00 91 1009.9
20260506114017 60 38 0.0 0.0 0.00 0.00 0.00 91 1009.9
20260506113930 60 38 0.0 0.0 0.00 0.00 0.00 91 1009.8
20260506113835 60 38 0.0 0.0 0.00 0.00 0.00 91 1009.7
20260506113727 60 38 0.0 0.0 0.00 0.00 0.00 91 1009.7
20260506113633 60 38 0.0 0.0 0.00 0.00 0.00 92 1009.8
20260506113549 60 38 0.0 0.0 0.00 0.00 0.00 91 1009.8
20260506113434 60 38 0.0 0.0 0.00 0.00 0.00 91 1009.8
20260506113320 60 141 0.0 0.0 0.00 0.00 0.00 91 1009.8
20260506113233 60 141 0.0 0.0 0.00 0.00 0.00 91 1009.9
20260506113138 60 141 0.0 0.0 0.00 0.00 0.00 91 1009.9
20260506113031 60 141 0.0 0.0 0.00 0.00 0.00 91 1009.8
20260506113002 59 141 0.0 0.0 0.00 0.00 0.00 91 1009.2
20260506112935 60 141 0.0 0.0 0.00 0.00 0.00 91 1009.8
20260506112847 60 141 0.0 0.0 0.00 0.00 0.00 91 1009.8
20260506112716 60 141 0.0 0.0 0.00 0.00 0.00 91 1009.8
20260506112622 60 141 0.0 0.0 0.00 0.00 0.00 91 1009.8
20260506112527 60 141 0.0 0.0 0.00 0.00 0.00 91 1009.9
20260506112441 60 141 0.0 0.0 0.00 0.00 0.00 91 1009.9
20260506112326 60 141 0.0 0.0 0.00 0.00 0.00 91 1009.8
20260506112212 60 141 0.0 0.0 0.00 0.00 0.00 91 1009.8
20260506112149 60 333 0.0 0.0 0.00 0.00 0.00 91 1009.8
20260506112013 60 333 0.0 0.0 0.00 0.00 0.00 91 1009.9
20260506111920 60 333 0.0 0.0 0.00 0.00 0.00 91 1009.9
20260506111826 60 333 0.0 0.0 0.00 0.00 0.00 91 1010.0
20260506111711 60 333 0.0 0.0 0.00 0.00 0.00 91 1009.9
20260506111617 60 337 0.0 0.0 0.00 0.00 0.00 91 1009.9
20260506111534 60 350 0.0 0.0 0.00 0.00 0.00 91 1009.8
20260506111515 59 360 0.0 0.0 0.00 0.00 0.00 91 1009.2
20260506111441 60 26 0.0 0.0 0.00 0.00 0.00 91 1009.7
20260506111326 60 320 0.0 0.0 0.00 0.00 0.00 91 1009.8
20260506111212 60 195 0.0 0.0 0.00 0.00 0.00 91 1009.8
20260506111124 60 195 0.0 0.0 0.00 0.00 0.00 91 1009.8
20260506111030 60 195 0.0 0.0 0.00 0.00 0.00 91 1009.8
20260506110919 60 195 0.0 0.0 0.00 0.00 0.00 91 1009.8
20260506110825 60 195 0.0 0.0 0.00 0.00 0.00 91 1009.8
20260506110711 60 195 0.0 0.0 0.00 0.00 0.00 90 1009.9
20260506110624 60 195 0.0 0.0 0.00 0.00 0.00 90 1009.9
20260506110510 60 195 0.0 0.0 0.00 0.00 0.00 91 1010.0
20260506110420 60 195 0.0 0.0 0.00 0.00 0.00 90 1010.0
20260506110326 60 195 0.0 0.0 0.00 0.00 0.00 90 1010.0
20260506110239 60 195 0.0 0.0 0.00 0.00 0.00 90 1010.1
20260506110124 60 195 0.0 0.0 0.00 0.00 0.00 90 1010.0
20260506110058 59 195 0.0 0.0 0.00 0.00 0.00 90 1009.4
20260506110010 60 195 0.0 0.0 0.00 0.00 0.00 90 1009.8
20260506105916 60 195 0.0 0.0 0.00 0.00 0.00 90 1009.8
20260506105826 60 195 0.0 0.0 0.00 0.00 0.00 90 1009.8
20260506105712 60 195 0.0 0.0 0.00 0.00 0.00 90 1010.0
20260506105625 60 195 0.0 0.0 0.00 0.00 0.00 90 1010.0
20260506105511 60 195 0.0 0.0 0.00 0.00 0.00 90 1010.0
20260506105417 60 195 0.0 0.0 0.00 0.00 0.00 90 1010.0
20260506105350 60 195 0.0 0.0 0.00 0.00 0.00 90 1009.9
20260506105120 60 195 0.0 0.0 0.00 0.00 0.00 90 1009.9
20260506105026 60 195 0.0 0.0 0.00 0.00 0.00 90 1009.9
20260506104912 60 195 0.0 0.0 0.00 0.00 0.00 90 1009.8
20260506104825 60 195 0.0 0.0 0.00 0.00 0.00 90 1009.8
20260506104711 60 195 0.0 0.0 0.00 0.00 0.00 90 1009.7
20260506104622 60 195 0.0 0.0 0.00 0.00 0.00 90 1009.7
20260506104556 60 195 0.0 0.0 0.00 0.00 0.00 90 1009.2
20260506104528 60 195 0.0 0.0 0.00 0.00 0.00 90 1009.7
20260506104414 60 195 0.0 0.0 0.00 0.00 0.00 89 1009.7
20260506104320 60 195 0.0 0.0 0.00 0.00 0.00 90 1009.7
20260506104233 60 195 0.0 0.0 0.00 0.00 0.00 90 1009.8
20260506104139 60 195 0.0 0.0 0.00 0.00 0.00 89 1009.7
20260506104028 60 195 0.0 0.0 0.00 0.00 0.00 89 1009.7
20260506103913 60 195 0.0 0.0 0.00 0.00 0.00 89 1009.7
20260506103826 60 195 0.0 0.0 0.00 0.00 0.00 89 1009.7
20260506103733 60 195 0.0 0.0 0.00 0.00 0.00 89 1009.8
20260506103618 60 195 0.0 0.0 0.00 0.00 0.00 89 1009.8
20260506103531 60 195 0.0 0.0 0.00 0.00 0.00 89 1009.8
20260506103420 60 195 0.0 0.0 0.00 0.00 0.00 88 1009.8
20260506103327 60 195 0.0 0.0 0.00 0.00 0.00 88 1009.8
20260506103212 60 195 0.0 0.0 0.00 0.00 0.00 88 1009.8
20260506103118 60 195 0.0 0.0 0.00 0.00 0.00 88 1009.8
20260506103042 59 195 0.0 0.0 0.00 0.00 0.00 88 1009.3
20260506103025 60 195 0.0 0.0 0.00 0.00 0.00 88 1009.8
20260506102915 59 195 0.0 0.0 0.00 0.00 0.00 88 1009.8
20260506102848 60 195 0.0 0.0 0.00 0.00 0.00 88 1009.8
20260506102712 60 195 0.0 0.0 0.00 0.00 0.00 88 1009.8
20260506102614 60 195 0.0 0.0 0.00 0.00 0.00 88 1009.8
20260506102529 60 195 0.0 0.0 0.00 0.00 0.00 88 1009.8
20260506102430 60 195 0.0 0.0 0.00 0.00 0.00 88 1009.8
20260506102336 60 195 0.0 0.0 0.00 0.00 0.00 88 1009.8
20260506102221 60 195 0.0 0.0 0.00 0.00 0.00 88 1009.8
20260506102134 60 195 0.0 0.0 0.00 0.00 0.00 88 1009.8
20260506102021 59 195 0.0 0.0 0.00 0.00 0.00 88 1009.8
20260506101926 60 195 0.0 0.0 0.00 0.00 0.00 88 1009.8
20260506101812 60 195 0.0 0.0 0.00 0.00 0.00 88 1009.8
20260506101722 59 195 0.0 0.0 0.00 0.00 0.00 88 1009.8
20260506101635 59 195 0.0 0.0 0.00 0.00 0.00 88 1009.7
20260506101626 59 195 0.0 0.0 0.00 0.00 0.00 88 1009.2
20260506101541 59 195 0.0 0.0 0.00 0.00 0.00 88 1009.8
20260506101426 59 195 0.0 0.0 0.00 0.00 0.00 88 1009.7
20260506101312 59 195 0.0 0.0 0.00 0.00 0.00 88 1009.7
20260506101218 59 195 0.0 0.0 0.00 0.00 0.00 88 1009.7
20260506101135 59 195 0.0 0.0 0.00 0.00 0.00 88 1009.6
20260506101021 59 195 0.0 0.0 0.00 0.00 0.00 88 1009.7
20260506100947 59 195 0.0 0.0 0.00 0.00 0.00 88 1009.7
20260506100812 59 65 0.0 0.0 0.00 0.00 0.00 88 1009.8
20260506100745 59 65 0.0 0.0 0.00 0.00 0.00 88 1009.8
20260506100610 59 65 0.0 0.0 0.00 0.00 0.00 89 1009.8
20260506100520 59 65 0.0 0.0 0.00 0.00 0.00 89 1009.8
20260506100453 59 65 0.0 0.0 0.00 0.00 0.00 88 1009.8
20260506100318 59 65 0.0 0.0 0.00 0.00 0.00 88 1009.7
20260506100224 59 65 0.0 0.0 0.00 0.00 0.00 89 1009.8
20260506100130 59 65 0.0 0.0 0.00 0.00 0.00 89 1009.7
20260506100022 59 65 0.0 0.0 0.00 0.00 0.00 89 1009.7
20260506100016 58 65 0.0 0.0 0.00 0.00 0.00 89 1009.2
20260506095912 59 65 0.0 0.0 0.00 0.00 0.00 88 1009.8
20260506095713 59 65 0.0 0.0 0.00 0.00 0.00 89 1009.8
20260506095627 59 65 0.0 0.0 0.00 0.00 0.00 89 1009.8
20260506095532 59 65 0.0 0.0 0.00 0.00 0.00 89 1009.8
20260506095438 59 65 0.0 0.0 0.00 0.00 0.00 89 1009.8
20260506095350 59 65 0.0 0.0 0.00 0.00 0.00 89 1009.7
20260506095239 59 65 0.0 0.0 0.00 0.00 0.00 89 1009.7
20260506095124 59 65 0.0 0.0 0.00 0.00 0.00 89 1009.7
20260506095037 59 65 0.0 0.0 0.00 0.00 0.00 89 1009.7
20260506094922 58 65 0.0 0.0 0.00 0.00 0.00 89 1009.7
20260506094855 58 65 0.0 0.0 0.00 0.00 0.00 89 1009.7
20260506094720 58 65 0.0 0.0 0.00 0.00 0.00 89 1009.7
20260506094609 58 65 0.0 0.0 0.00 0.00 0.00 89 1009.7
20260506094605 58 65 0.0 0.0 0.00 0.00 0.00 89 1009.2
20260506094516 58 65 0.0 0.0 0.00 0.00 0.00 89 1009.7
20260506094421 58 65 0.0 0.0 0.00 0.00 0.00 90 1009.7
20260506094328 58 65 0.0 0.0 0.00 0.00 0.00 89 1009.7
20260506094214 58 65 0.0 0.0 0.00 0.00 0.00 89 1009.7
20260506094127 58 65 0.0 0.0 0.00 0.00 0.00 89 1009.7
20260506094016 58 65 0.0 0.0 0.00 0.00 0.00 89 1009.7
20260506093923 58 65 0.0 0.0 0.00 0.00 0.00 89 1009.7
20260506093829 58 65 0.0 0.0 0.00 0.00 0.00 90 1009.7
20260506093715 58 65 0.0 0.0 0.00 0.00 0.00 90 1009.7
20260506093621 58 65 0.0 0.0 0.00 0.00 0.00 90 1009.7
20260506093510 58 65 0.0 0.0 0.00 0.00 0.00 90 1009.8
20260506093443 58 65 0.0 0.0 0.00 0.00 0.00 90 1009.8
20260506093328 58 65 0.0 0.0 0.00 0.00 0.00 90 1009.8
20260506093242 57 65 0.0 0.0 0.00 0.00 0.00 90 1009.8
20260506093126 57 65 0.0 0.0 0.00 0.00 0.00 90 1009.8
20260506093053 57 65 0.0 0.0 0.00 0.00 0.00 90 1009.3
20260506093012 57 65 0.0 0.0 0.00 0.00 0.00 90 1009.8
20260506092922 57 65 0.0 0.0 0.00 0.00 0.00 90 1009.8
20260506092835 57 57 0.0 0.0 0.00 0.00 0.00 90 1009.8
20260506092714 57 129 0.0 0.0 0.00 0.00 0.00 90 1009.8
20260506092647 57 129 0.0 0.0 0.00 0.00 0.00 91 1009.8
20260506092512 57 129 0.0 0.0 0.00 0.00 0.00 91 1009.8
20260506092418 57 129 0.0 0.0 0.00 0.00 0.00 91 1009.8
20260506092335 57 129 0.0 0.0 0.00 0.00 0.00 91 1009.8
20260506092221 56 129 0.0 0.0 0.00 0.00 0.00 91 1009.8
20260506092127 56 129 0.0 0.0 0.00 0.00 0.00 91 1009.8
20260506092013 56 129 0.0 0.0 0.00 0.00 0.00 91 1009.8
20260506091919 56 129 0.0 0.0 0.00 0.00 0.00 91 1009.8
20260506091809 56 129 0.0 0.0 0.00 0.00 0.00 91 1009.7
20260506091715 56 130 0.0 0.0 0.00 0.00 0.00 90 1009.8
20260506091628 56 167 0.0 0.0 0.00 0.00 0.00 90 1009.8
20260506091608 55 167 0.0 0.0 0.00 0.00 0.00 90 1009.3
20260506091514 55 167 0.0 0.0 0.00 0.00 0.00 90 1009.7
20260506091420 55 167 0.0 0.0 0.00 0.00 0.00 90 1009.7
20260506091326 55 167 0.0 0.0 0.00 0.00 0.00 90 1009.7
20260506091216 55 167 0.0 0.0 0.00 0.00 0.00 90 1009.7
20260506091129 55 167 0.0 0.0 0.00 0.00 0.00 90 1009.7
20260506091035 55 167 0.0 0.0 0.00 0.00 0.00 90 1009.7
20260506090921 55 167 0.0 0.0 0.00 0.00 0.00 90 1009.8
20260506090827 55 167 0.0 0.0 0.00 0.00 0.00 90 1009.8
20260506090717 55 167 0.0 0.0 0.00 0.00 0.00 90 1009.8
20260506090623 55 167 0.0 0.0 0.00 0.00 0.00 90 1009.9
20260506090509 55 167 0.0 0.0 0.00 0.00 0.00 90 1009.8
20260506090422 55 167 0.0 0.0 0.00 0.00 0.00 90 1009.8
20260506090328 55 167 0.0 0.0 0.00 0.00 0.00 90 1009.8
20260506090214 54 167 0.0 0.0 0.00 0.00 0.00 90 1009.9
20260506090124 54 167 0.0 0.0 0.00 0.00 0.00 90 1009.9
20260506090043 54 167 0.0 0.0 0.00 0.00 0.00 90 1009.5
20260506090010 54 167 0.0 0.0 0.00 0.00 0.00 90 1009.9
20260506085917 54 167 0.0 0.0 0.00 0.00 0.00 90 1009.9
20260506085830 54 167 0.0 0.0 0.00 0.00 0.00 90 1010.0
20260506085716 54 167 0.0 0.0 0.00 0.00 0.00 90 1009.9
20260506085642 54 167 0.0 0.0 0.00 0.00 0.00 90 1009.9
20260506085511 54 167 0.0 0.0 0.00 0.00 0.00 90 1010.0
20260506085424 54 167 0.0 0.0 0.00 0.00 0.00 90 1010.0
20260506085330 54 167 0.0 0.0 0.00 0.00 0.00 90 1010.0
20260506085216 54 167 0.0 0.0 0.00 0.00 0.00 90 1010.0
20260506085142 54 167 0.0 0.0 0.00 0.00 0.00 90 1010.0
20260506085011 54 167 0.0 0.0 0.00 0.00 0.00 90 1010.0
20260506084923 54 167 0.0 0.0 0.00 0.00 0.00 90 1010.0
20260506084809 54 167 0.0 0.0 0.00 0.00 0.00 90 1009.9
20260506084736 54 167 0.0 0.0 0.00 0.00 0.00 90 1009.9
20260506084627 54 167 0.0 0.0 0.00 0.00 0.00 90 1009.9
20260506084533 54 167 0.0 0.0 0.00 0.00 0.00 90 1009.9
20260506084508 53 167 0.0 0.0 0.00 0.00 0.00 90 1009.4
20260506084424 54 167 0.0 0.0 0.00 0.00 0.00 90 1009.9
20260506084310 54 167 0.0 0.0 0.00 0.00 0.00 90 1009.9
20260506084216 54 167 0.0 0.0 0.00 0.00 0.00 90 1010.0
20260506084121 54 167 0.0 0.0 0.00 0.00 0.00 90 1010.0
20260506084034 54 167 0.0 0.0 0.00 0.00 0.00 90 1010.0
20260506083920 54 167 0.0 0.0 0.00 0.00 0.00 90 1010.0
20260506083811 53 167 0.0 0.0 0.00 0.00 0.00 90 1009.9
20260506083716 53 167 0.0 0.0 0.00 0.00 0.00 90 1009.9
20260506083649 53 167 0.0 0.0 0.00 0.00 0.00 90 1010.0
20260506083534 53 167 0.0 0.0 0.00 0.00 0.00 90 1010.0
20260506083420 53 167 0.0 0.0 0.00 0.00 0.00 90 1010.0
20260506083310 53 167 0.0 0.0 0.00 0.00 0.00 90 1010.0
20260506083216 53 167 0.0 0.0 0.00 0.00 0.00 90 1010.0
20260506083122 53 167 0.0 0.0 0.00 0.00 0.00 90 1010.0
20260506083035 53 167 0.0 0.0 0.00 0.00 0.00 90 1010.0
20260506083029 53 167 0.0 0.0 0.00 0.00 0.00 90 1009.6
20260506082922 53 167 0.0 0.0 0.00 0.00 0.00 90 1010.0
20260506082847 53 167 0.0 0.0 0.00 0.00 0.00 90 1010.0
20260506082716 53 167 0.0 0.0 0.00 0.00 0.00 91 1010.0
20260506082622 53 167 0.0 0.0 0.00 0.00 0.00 91 1010.0
20260506082535 53 167 0.0 0.0 0.00 0.00 0.00 91 1010.1
20260506082420 53 167 0.0 0.0 0.00 0.00 0.00 91 1010.1
20260506082326 53 167 0.0 0.0 0.00 0.00 0.00 91 1010.0
20260506082212 53 167 0.0 0.0 0.00 0.00 0.00 91 1009.9
20260506082129 53 167 0.0 0.0 0.00 0.00 0.00 91 1009.9
20260506082015 53 167 0.0 0.0 0.00 0.00 0.00 91 1009.9
20260506081921 53 167 0.0 0.0 0.00 0.00 0.00 91 1009.9
20260506081827 53 167 0.0 0.0 0.00 0.00 0.00 91 1010.0
20260506081713 53 167 0.0 0.0 0.00 0.00 0.00 91 1010.0
20260506081619 53 167 0.0 0.0 0.00 0.00 0.00 91 1010.0
20260506081524 52 167 0.0 0.0 0.00 0.00 0.00 91 1009.6
20260506081509 53 167 0.0 0.0 0.00 0.00 0.00 91 1010.1
20260506081442 53 167 0.0 0.0 0.00 0.00 0.00 91 1010.1
20260506081354 53 167 0.0 0.0 0.00 0.00 0.00 91 1010.0
20260506081219 53 167 0.0 0.0 0.00 0.00 0.00 91 1010.0
20260506081125 53 167 0.0 0.0 0.00 0.00 0.00 91 1010.0
20260506081010 53 167 0.0 0.0 0.00 0.00 0.00 91 1010.1
20260506080921 53 167 0.0 0.0 0.00 0.00 0.00 91 1010.1
20260506080827 53 167 0.0 0.0 0.00 0.00 0.00 91 1010.0
20260506080713 53 167 0.0 0.0 0.00 0.00 0.00 91 1010.0
20260506080646 53 167 0.0 0.0 0.00 0.00 0.00 91 1010.0
20260506080512 52 167 0.0 0.0 0.00 0.00 0.00 91 1010.0
20260506080417 52 167 0.0 0.0 0.00 0.00 0.00 91 1010.0
20260506080335 52 167 0.0 0.0 0.00 0.00 0.00 91 1010.1
20260506080221 52 167 0.0 0.0 0.00 0.00 0.00 91 1010.1
20260506080126 52 167 0.0 0.0 0.00 0.00 0.00 91 1010.1
20260506073514 52 167 0.0 0.0 0.00 0.00 0.00 91 1010.3
20260506073427 51 167 0.0 0.0 0.00 0.00 0.00 91 1010.3
20260506073333 51 167 0.0 0.0 0.00 0.00 0.00 91 1010.2
20260506073219 51 167 0.0 0.0 0.00 0.00 0.00 91 1010.3
20260506073125 51 167 0.0 0.0 0.00 0.00 0.00 91 1010.2
20260506073050 51 167 0.0 0.0 0.00 0.00 0.00 91 1009.8
20260506073011 51 167 0.0 0.0 0.00 0.00 0.00 91 1010.3
20260506072921 51 167 0.0 0.0 0.00 0.00 0.00 91 1010.3
20260506072834 51 167 0.0 0.0 0.00 0.00 0.00 91 1010.2
20260506072720 51 167 0.0 0.0 0.00 0.00 0.00 91 1010.2
20260506072626 51 167 0.0 0.0 0.00 0.00 0.00 91 1010.2
20260506072532 51 167 0.0 0.0 0.00 0.00 0.00 91 1010.1
20260506072417 51 167 0.0 0.0 0.00 0.00 0.00 91 1010.1
20260506072334 51 167 0.0 0.0 0.00 0.00 0.00 91 1010.1
20260506072219 51 167 0.0 0.0 0.00 0.00 0.00 91 1010.1
20260506072152 51 167 0.0 0.0 0.00 0.00 0.00 91 1010.1
20260506072017 51 167 0.0 0.0 0.00 0.00 0.00 91 1010.2
20260506071923 51 167 0.0 0.0 0.00 0.00 0.00 91 1010.1
20260506071856 51 167 0.0 0.0 0.00 0.00 0.00 91 1010.1
20260506071725 51 167 0.0 0.0 0.00 0.00 0.00 91 1010.1
20260506071611 51 167 0.0 0.0 0.00 0.00 0.00 91 1010.2
20260506071601 51 167 0.0 0.0 0.00 0.00 0.00 91 1009.7
20260506071517 51 167 0.0 0.0 0.00 0.00 0.00 91 1010.2
20260506071423 51 167 0.0 0.0 0.00 0.00 0.00 91 1010.2
20260506071328 51 167 0.0 0.0 0.00 0.00 0.00 91 1010.2
20260506071215 51 167 0.0 0.0 0.00 0.00 0.00 91 1010.2
20260506071131 51 167 0.0 0.0 0.00 0.00 0.00 91 1010.2
20260506071017 51 167 0.0 0.0 0.00 0.00 0.00 91 1010.2
20260506070923 51 167 0.0 0.0 0.00 0.00 0.00 91 1010.2
20260506070856 51 167 0.0 0.0 0.00 0.00 0.00 91 1010.2
20260506070722 51 167 0.0 0.0 0.00 0.00 0.00 91 1010.2
20260506070611 51 167 0.0 0.0 0.00 0.00 0.00 91 1010.2
20260506070517 51 167 0.0 0.0 0.00 0.00 0.00 91 1010.2
20260506070423 51 167 0.0 0.0 0.00 0.00 0.00 91 1010.2
20260506070309 51 167 0.0 0.0 0.00 0.00 0.00 91 1010.2
20260506070216 51 167 0.0 0.0 0.00 0.00 0.00 91 1010.3
20260506070128 51 167 0.0 0.0 0.00 0.00 0.00 91 1010.3
20260506062514 51 167 0.0 0.0 0.00 0.00 0.00 90 1010.8
20260506062427 51 167 0.0 0.0 0.00 0.00 0.00 90 1010.8
20260506062333 51 167 0.0 0.0 0.00 0.00 0.00 90 1010.9
20260506062218 51 167 0.0 0.0 0.00 0.00 0.00 90 1010.9
20260506062151 51 167 0.0 0.0 0.00 0.00 0.00 90 1010.8
20260506062016 51 167 0.0 0.0 0.00 0.00 0.00 90 1010.8
20260506061926 51 167 0.0 0.0 0.00 0.00 0.00 90 1010.8
20260506061812 51 167 0.0 0.0 0.00 0.00 0.00 90 1010.8
20260506061718 51 167 0.0 0.0 0.00 0.00 0.00 90 1010.8
20260506061631 51 167 0.0 0.0 0.00 0.00 0.00 90 1010.8
20260506061555 50 167 0.0 0.0 0.00 0.00 0.00 90 1010.4
20260506061536 51 167 0.0 0.0 0.00 0.00 0.00 90 1010.8
20260506061428 51 167 0.0 0.0 0.00 0.00 0.00 90 1010.8
20260506061318 51 167 0.0 0.0 0.00 0.00 0.00 90 1010.8
20260506061224 51 167 0.0 0.0 0.00 0.00 0.00 90 1010.8
20260506061110 51 167 0.0 0.0 0.00 0.00 0.00 90 1010.8
20260506061016 51 167 0.0 0.0 0.00 0.00 0.00 90 1010.9
20260506060922 51 167 0.0 0.0 0.00 0.00 0.00 90 1010.9
20260506060835 51 167 0.0 0.0 0.00 0.00 0.00 90 1010.8
20260506060745 51 167 0.0 0.0 0.00 0.00 0.00 90 1010.8
20260506060630 51 167 0.0 0.0 0.00 0.00 0.00 90 1010.9
20260506060522 51 167 0.0 0.0 0.00 0.00 0.00 90 1010.9
20260506060428 51 167 0.0 0.0 0.00 0.00 0.00 90 1010.9
20260506060314 51 167 0.0 0.0 0.00 0.00 0.00 90 1010.9
20260506060220 51 167 0.0 0.0 0.00 0.00 0.00 90 1010.9
20260506060110 51 167 0.0 0.0 0.00 0.00 0.00 91 1010.9
20260506051313 52 167 0.0 0.0 0.00 0.00 0.00 89 1011.1
20260506051219 52 167 0.0 0.0 0.00 0.00 0.00 89 1011.1
20260506051132 52 167 0.0 0.0 0.00 0.00 0.00 89 1011.1
20260506051018 52 167 0.0 0.0 0.00 0.00 0.00 89 1011.1
20260506050924 52 167 0.0 0.0 0.00 0.00 0.00 89 1011.1
20260506050815 52 167 0.0 0.0 0.00 0.00 0.00 89 1011.1
20260506050721 52 167 0.0 0.0 0.00 0.00 0.00 89 1011.1
20260506050627 52 167 0.0 0.0 0.00 0.00 0.00 89 1011.1
20260506050513 52 167 0.0 0.0 0.00 0.00 0.00 89 1011.1
20260506050425 52 167 0.0 0.0 0.00 0.00 0.00 88 1011.1
20260506050315 52 167 0.0 0.0 0.00 0.00 0.00 88 1011.1
20260506050221 52 167 0.0 0.0 0.00 0.00 0.00 88 1011.1
20260506050127 52 167 0.0 0.0 0.00 0.00 0.00 88 1011.1
20260506045133 52 167 0.0 0.0 0.00 0.00 0.00 88 1011.0
20260506045013 52 167 0.0 0.0 0.00 0.00 0.00 88 1011.0
20260506044925 52 167 0.0 0.0 0.00 0.00 0.00 88 1011.0
20260506044832 52 167 0.0 0.0 0.00 0.00 0.00 88 1011.0
20260506044717 53 167 0.0 0.0 0.00 0.00 0.00 88 1011.0
20260506044630 53 167 0.0 0.0 0.00 0.00 0.00 88 1010.9
20260506044556 52 167 0.0 0.0 0.00 0.00 0.00 88 1010.5
20260506044540 53 167 0.0 0.0 0.00 0.00 0.00 88 1010.9
20260506044432 53 167 0.0 0.0 0.00 0.00 0.00 88 1011.0
20260506044318 53 167 0.0 0.0 0.00 0.00 0.00 88 1011.0
20260506044224 53 167 0.0 0.0 0.00 0.00 0.00 88 1011.0
20260506044130 53 167 0.0 0.0 0.00 0.00 0.00 88 1011.0
20260506044016 53 167 0.0 0.0 0.00 0.00 0.00 88 1011.0
20260506043933 53 167 0.0 0.0 0.00 0.00 0.00 87 1011.0
20260506043819 53 167 0.0 0.0 0.00 0.00 0.00 88 1011.0
20260506043725 53 167 0.0 0.0 0.00 0.00 0.00 88 1011.0
20260506043631 53 167 0.0 0.0 0.00 0.00 0.00 88 1010.9
20260506043523 53 167 0.0 0.0 0.00 0.00 0.00 87 1010.9
20260506043409 53 167 0.0 0.0 0.00 0.00 0.00 87 1010.9
20260506043319 53 167 0.0 0.0 0.00 0.00 0.00 88 1010.9
20260506043225 53 167 0.0 0.0 0.00 0.00 0.00 88 1010.9
20260506043111 53 167 0.0 0.0 0.00 0.00 0.00 88 1010.9
20260506043029 53 167 0.0 0.0 0.00 0.00 0.00 88 1010.5
20260506043017 53 167 0.0 0.0 0.00 0.00 0.00 88 1010.9
20260506042930 53 167 0.0 0.0 0.00 0.00 0.00 88 1010.9
20260506042815 53 167 0.0 0.0 0.00 0.00 0.00 88 1010.9
20260506042725 53 167 0.0 0.0 0.00 0.00 0.00 87 1010.9
20260506042611 53 167 0.0 0.0 0.00 0.00 0.00 87 1010.9
20260506042524 53 167 0.0 0.0 0.00 0.00 0.00 87 1010.9
20260506042430 53 167 0.0 0.0 0.00 0.00 0.00 88 1011.0
20260506042315 53 167 0.0 0.0 0.00 0.00 0.00 88 1011.0
20260506042221 53 167 0.0 0.0 0.00 0.00 0.00 88 1011.0
20260506042111 53 167 0.0 0.0 0.00 0.00 0.00 88 1011.1
20260506042044 53 167 0.0 0.0 0.00 0.00 0.00 88 1011.1
20260506041956 53 167 0.0 0.0 0.00 0.00 0.00 88 1011.0
20260506041841 53 167 0.0 0.0 0.00 0.00 0.00 88 1011.0
20260506041726 53 167 0.0 0.0 0.00 0.00 0.00 87 1011.1
20260506041612 53 167 0.0 0.0 0.00 0.00 0.00 87 1011.1
20260506041529 53 167 0.0 0.0 0.00 0.00 0.00 87 1011.1
20260506041514 53 167 0.0 0.0 0.00 0.00 0.00 88 1010.6
20260506041415 53 167 0.0 0.0 0.00 0.00 0.00 88 1011.1
20260506041321 53 167 0.0 0.0 0.00 0.00 0.00 87 1011.1
20260506041227 53 167 0.0 0.0 0.00 0.00 0.00 87 1011.1
20260506041112 53 167 0.0 0.0 0.00 0.00 0.00 87 1011.1
20260506041019 53 167 0.0 0.0 0.00 0.00 0.00 87 1011.1
20260506040909 53 167 0.0 0.0 0.00 0.00 0.00 87 1011.1